KJ6MC Weather Reports


Display with metric or nautical units.
time (UTC)temp
F
wind
direction
speed
MPH
gust
MPH
rain 1hr
in
rain 24hr
in
rain mn
in
humidity
%
barometer
mb
20260904011249 70 245 1.0 6.0 0.00 0.00 0.00 73 1010.9
20260904011147 70 301 1.0 6.0 0.00 0.00 0.00 73 1010.9
20260904011045 71 253 2.0 10.0 0.00 0.00 0.00 73 1010.9
20260904010941 71 240 2.0 10.0 0.00 0.00 0.00 73 1010.9
20260904010909 71 321 2.0 10.0 0.00 0.00 0.00 73 1010.9
20260904010838 71 350 2.0 10.0 0.00 0.00 0.00 72 1010.9
20260904010739 71 311 2.0 10.0 0.00 0.00 0.00 72 1010.9
20260904010638 71 233 2.0 10.0 0.00 0.00 0.00 72 1010.9
20260904010536 71 240 2.0 10.0 0.00 0.00 0.00 72 1010.9
20260904010410 71 240 2.0 10.0 0.00 0.00 0.00 72 1010.9
20260904010331 71 241 2.0 10.0 0.00 0.00 0.00 72 1010.9
20260904010232 71 264 2.0 10.0 0.00 0.00 0.00 72 1010.9
20260904010132 71 245 2.0 10.0 0.00 0.00 0.00 72 1011.0
20260904010030 71 256 2.0 5.0 0.00 0.00 0.00 71 1011.0
20260904005929 71 339 2.0 5.0 0.00 0.00 0.00 72 1011.0
20260904005911 71 319 2.0 5.0 0.00 0.00 0.00 72 1011.0
20260904005827 71 294 2.0 5.0 0.00 0.00 0.00 72 1011.0
20260904005727 71 256 2.0 5.0 0.00 0.00 0.00 71 1011.0
20260904005626 71 260 1.0 5.0 0.00 0.00 0.00 71 1011.0
20260904005523 71 238 1.0 5.0 0.00 0.00 0.00 71 1011.0
20260904005410 71 301 2.0 5.0 0.00 0.00 0.00 71 1011.0
20260904005318 71 294 2.0 7.0 0.00 0.00 0.00 71 1011.0
20260904005217 71 310 2.0 7.0 0.00 0.00 0.00 71 1011.0
20260904005132 71 203 2.0 7.0 0.00 0.00 0.00 70 1011.0
20260904005117 71 184 2.0 7.0 0.00 0.00 0.00 71 1011.0
20260904005025 71 229 2.0 7.0 0.00 0.00 0.00 70 1011.0
20260904005015 71 203 2.0 7.0 0.00 0.00 0.00 70 1011.0
20260904004808 71 207 2.0 7.0 0.00 0.00 0.00 70 1011.0
20260904004710 71 277 2.0 7.0 0.00 0.00 0.00 70 1010.9
20260904004607 72 253 1.0 7.0 0.00 0.00 0.00 70 1011.0
20260904004507 72 180 1.0 7.0 0.00 0.00 0.00 70 1011.0
20260904004409 72 276 1.0 7.0 0.00 0.00 0.00 70 1011.0
20260904004403 72 275 1.0 7.0 0.00 0.00 0.00 70 1011.0
20260904004301 72 277 1.0 6.0 0.00 0.00 0.00 70 1011.0
20260904004201 72 115 1.0 4.0 0.00 0.00 0.00 70 1011.0
20260904004132 72 310 1.0 4.0 0.00 0.00 0.00 70 1011.0
20260904004101 72 321 1.0 4.0 0.00 0.00 0.00 70 1011.0
20260904004020 72 177 1.0 4.0 0.00 0.00 0.00 70 1010.9
20260904003855 72 333 1.0 4.0 0.00 0.00 0.00 70 1011.0
20260904003758 72 233 1.0 4.0 0.00 0.00 0.00 70 1011.0
20260904003656 72 348 1.0 5.0 0.00 0.00 0.00 70 1011.0
20260904003555 72 260 1.0 5.0 0.00 0.00 0.00 70 1011.0
20260904003452 72 274 2.0 5.0 0.00 0.00 0.00 70 1011.0
20260904003412 72 273 2.0 6.0 0.00 0.00 0.00 70 1010.9
20260904003350 72 148 2.0 6.0 0.00 0.00 0.00 69 1010.9
20260904003247 72 328 2.0 6.0 0.00 0.00 0.00 69 1011.0
20260904003147 72 217 2.0 6.0 0.00 0.00 0.00 69 1010.9
20260904003047 72 150 2.0 6.0 0.00 0.00 0.00 69 1010.9
20260904002944 72 222 2.0 6.0 0.00 0.00 0.00 69 1011.0
20260904002909 72 207 2.0 6.0 0.00 0.00 0.00 69 1010.9
20260904002841 72 231 2.0 6.0 0.00 0.00 0.00 69 1010.9
20260904002740 72 253 1.0 6.0 0.00 0.00 0.00 69 1010.9
20260904002641 72 256 1.0 6.0 0.00 0.00 0.00 69 1010.8
20260904002624 73 274 1.0 6.0 0.00 0.00 0.00 68 1010.8
20260904002540 72 270 1.0 6.0 0.00 0.00 0.00 69 1010.8
20260904002520 72 224 1.0 6.0 0.00 0.00 0.00 68 1010.8
20260904002335 73 273 1.0 6.0 0.00 0.00 0.00 69 1010.8
20260904002236 73 136 1.0 6.0 0.00 0.00 0.00 69 1010.9
20260904002137 73 238 1.0 6.0 0.00 0.00 0.00 69 1010.9
20260904002035 73 305 1.0 6.0 0.00 0.00 0.00 69 1010.8
20260904001933 73 305 1.0 7.0 0.00 0.00 0.00 69 1010.8
20260904001909 73 304 1.0 7.0 0.00 0.00 0.00 69 1010.8
20260904001833 73 305 1.0 7.0 0.00 0.00 0.00 69 1010.8
20260904001733 73 280 1.0 7.0 0.00 0.00 0.00 68 1010.8
20260904001634 73 242 1.0 7.0 0.00 0.00 0.00 68 1010.8
20260904001531 73 288 1.0 7.0 0.00 0.00 0.00 68 1010.8
20260904001428 73 212 1.0 7.0 0.00 0.00 0.00 68 1010.8
20260904001407 73 290 1.0 7.0 0.00 0.00 0.00 68 1010.9
20260904001329 73 283 1.0 7.0 0.00 0.00 0.00 68 1010.9
20260904001228 73 283 1.0 7.0 0.00 0.00 0.00 68 1010.8
20260904001129 73 257 1.0 7.0 0.00 0.00 0.00 68 1010.9
20260904001028 73 300 1.0 8.0 0.00 0.00 0.00 68 1010.9
20260904000930 73 236 1.0 8.0 0.00 0.00 0.00 68 1010.9
20260904000919 73 197 2.0 9.0 0.00 0.00 0.00 68 1010.9
20260904000829 73 250 2.0 9.0 0.00 0.00 0.00 68 1010.9
20260904000727 73 250 2.0 9.0 0.00 0.00 0.00 67 1010.9
20260904000627 73 250 2.0 9.0 0.00 0.00 0.00 67 1010.9
20260904000526 73 250 2.0 9.0 0.00 0.00 0.00 67 1010.9
20260904000426 73 250 2.0 9.0 0.00 0.00 0.00 67 1010.9
20260904000410 73 233 2.0 9.0 0.00 0.00 0.00 67 1011.0
20260904000327 73 238 2.0 9.0 0.00 0.00 0.00 66 1011.0
20260904000226 73 283 2.0 10.0 0.00 0.00 0.00 66 1011.0
20260904000126 74 297 2.0 10.0 0.00 0.00 0.00 66 1011.0
20260904000021 74 238 2.0 10.0 0.00 0.00 0.00 66 1010.9
20260903235920 74 274 2.0 10.0 0.00 0.00 0.00 66 1010.9
20260903235902 74 26 2.0 10.0 0.00 0.00 0.00 66 1010.9
20260903235821 74 325 2.0 10.0 0.00 0.00 0.00 67 1010.9
20260903235720 74 288 2.0 10.0 0.00 0.00 0.00 66 1010.9
20260903235617 74 325 2.0 10.0 0.00 0.00 0.00 67 1010.9
20260903235515 74 201 2.0 10.0 0.00 0.00 0.00 66 1010.9
20260903235415 74 239 2.0 10.0 0.00 0.00 0.00 66 1010.9
20260903235356 74 222 2.0 10.0 0.00 0.00 0.00 66 1010.9
20260903235315 74 326 2.0 10.0 0.00 0.00 0.00 66 1010.9
20260903235214 74 219 2.0 10.0 0.00 0.00 0.00 66 1011.0
20260903235110 74 252 2.0 10.0 0.00 0.00 0.00 66 1011.0
20260903235008 74 273 2.0 12.0 0.00 0.00 0.00 66 1010.9
20260903234909 74 232 2.0 12.0 0.00 0.00 0.00 66 1010.9
20260903234850 74 281 2.0 12.0 0.00 0.00 0.00 66 1010.9
20260903234809 74 136 2.0 12.0 0.00 0.00 0.00 66 1010.9
20260903234709 74 161 2.0 12.0 0.00 0.00 0.00 66 1011.0
20260903234602 74 317 2.0 12.0 0.00 0.00 0.00 66 1010.9
20260903234504 74 6 2.0 12.0 0.00 0.00 0.00 66 1010.9
20260903234403 74 293 2.0 12.0 0.00 0.00 0.00 66 1010.9
20260903234344 74 327 2.0 12.0 0.00 0.00 0.00 66 1010.9
20260903234302 74 218 2.0 12.0 0.00 0.00 0.00 66 1011.0
20260903234201 74 148 2.0 12.0 0.00 0.00 0.00 66 1011.0
20260903234059 74 214 2.0 12.0 0.00 0.00 0.00 66 1011.0
20260903233958 74 314 2.0 8.0 0.00 0.00 0.00 66 1011.0
20260903233858 74 8 2.0 6.0 0.00 0.00 0.00 66 1011.0
20260903233838 74 250 2.0 6.0 0.00 0.00 0.00 66 1011.0
20260903233759 74 266 2.0 7.0 0.00 0.00 0.00 66 1011.0
20260903233655 74 291 2.0 9.0 0.00 0.00 0.00 66 1011.0
20260903233602 74 259 3.0 10.0 0.00 0.00 0.00 65 1011.0
20260903233551 74 297 2.0 9.0 0.00 0.00 0.00 66 1011.0
20260903233451 74 248 3.0 9.0 0.00 0.00 0.00 66 1011.0
20260903233441 74 318 3.0 10.0 0.00 0.00 0.00 65 1011.0
20260903233251 74 233 3.0 10.0 0.00 0.00 0.00 65 1011.0
20260903233150 74 256 3.0 10.0 0.00 0.00 0.00 66 1011.0
20260903233053 74 200 3.0 10.0 0.00 0.00 0.00 65 1011.0
20260903233047 74 253 3.0 10.0 0.00 0.00 0.00 66 1011.0
20260903232946 74 273 3.0 10.0 0.00 0.00 0.00 65 1011.0
20260903232935 74 256 3.0 10.0 0.00 0.00 0.00 65 1011.0
20260903232745 74 288 3.0 10.0 0.00 0.00 0.00 65 1011.0
20260903232645 74 280 3.0 10.0 0.00 0.00 0.00 65 1011.0
20260903232544 75 277 2.0 11.0 0.00 0.00 0.00 65 1011.0
20260903232540 74 274 3.0 10.0 0.00 0.00 0.00 65 1011.0
20260903232438 75 281 2.0 11.0 0.00 0.00 0.00 65 1011.0
20260903232429 75 277 2.0 11.0 0.00 0.00 0.00 65 1011.0
20260903232239 75 231 3.0 11.0 0.00 0.00 0.00 65 1011.0
20260903232138 75 305 3.0 11.0 0.00 0.00 0.00 65 1011.1
20260903232035 75 287 3.0 11.0 0.00 0.00 0.00 65 1011.0
20260903231933 75 310 3.0 11.0 0.00 0.00 0.00 65 1011.0
20260903231832 75 321 3.0 11.0 0.00 0.00 0.00 64 1011.0
20260903231817 75 267 3.0 11.0 0.00 0.00 0.00 64 1011.0
20260903231733 75 308 3.0 11.0 0.00 0.00 0.00 64 1011.0
20260903231632 75 253 3.0 11.0 0.00 0.00 0.00 64 1011.1
20260903231530 75 236 3.0 11.0 0.00 0.00 0.00 64 1011.0
20260903231430 75 266 3.0 11.0 0.00 0.00 0.00 63 1011.0
20260903231331 75 291 3.0 11.0 0.00 0.00 0.00 63 1011.0
20260903231308 75 226 3.0 11.0 0.00 0.00 0.00 63 1011.1
20260903231229 76 248 3.0 11.0 0.00 0.00 0.00 63 1011.1
20260903231126 76 303 3.0 10.0 0.00 0.00 0.00 63 1011.1
20260903231022 76 290 3.0 10.0 0.00 0.00 0.00 63 1011.1
20260903230920 76 232 2.0 9.0 0.00 0.00 0.00 62 1011.1
20260903230821 76 277 3.0 9.0 0.00 0.00 0.00 62 1011.1
20260903230802 76 263 3.0 9.0 0.00 0.00 0.00 62 1011.1
20260903230721 76 256 3.0 9.0 0.00 0.00 0.00 63 1011.1
20260903230625 76 278 3.0 9.0 0.00 0.00 0.00 62 1011.1
20260903230516 76 253 2.0 9.0 0.00 0.00 0.00 62 1011.1
20260903230414 76 250 2.0 9.0 0.00 0.00 0.00 62 1011.1
20260903230315 76 278 3.0 9.0 0.00 0.00 0.00 61 1011.2
20260903230256 76 236 3.0 9.0 0.00 0.00 0.00 61 1011.2
20260903230215 76 283 3.0 9.0 0.00 0.00 0.00 61 1011.2
20260903230114 76 311 3.0 9.0 0.00 0.00 0.00 61 1011.2
20260903230011 77 269 2.0 9.0 0.00 0.00 0.00 62 1011.2
20260903225909 76 248 2.0 9.0 0.00 0.00 0.00 61 1011.2
20260903225809 76 250 3.0 9.0 0.00 0.00 0.00 61 1011.2
20260903225752 76 232 3.0 9.0 0.00 0.00 0.00 61 1011.2
20260903225708 76 208 3.0 12.0 0.00 0.00 0.00 62 1011.2
20260903225609 76 269 3.0 16.0 0.00 0.00 0.00 62 1011.2
20260903225508 76 243 3.0 16.0 0.00 0.00 0.00 62 1011.2
20260903225408 76 291 3.0 16.0 0.00 0.00 0.00 62 1011.2
20260903225306 76 271 3.0 16.0 0.00 0.00 0.00 62 1011.2
20260903225255 76 280 3.0 16.0 0.00 0.00 0.00 62 1011.2
20260903225203 76 255 3.0 16.0 0.00 0.00 0.00 62 1011.2
20260903225103 76 281 3.0 16.0 0.00 0.00 0.00 62 1011.2
20260903225002 76 266 3.0 16.0 0.00 0.00 0.00 62 1011.2
20260903224902 76 248 4.0 16.0 0.00 0.00 0.00 61 1011.2
20260903224806 76 235 4.0 16.0 0.00 0.00 0.00 60 1011.3
20260903224757 76 232 4.0 16.0 0.00 0.00 0.00 60 1011.3
20260903224702 76 229 3.0 16.0 0.00 0.00 0.00 61 1011.2
20260903224603 76 260 3.0 12.0 0.00 0.00 0.00 61 1011.3
20260903224503 76 250 3.0 12.0 0.00 0.00 0.00 61 1011.3
20260903224401 76 243 3.0 12.0 0.00 0.00 0.00 62 1011.3
20260903224301 76 240 4.0 12.0 0.00 0.00 0.00 62 1011.2
20260903224239 76 255 4.0 12.0 0.00 0.00 0.00 62 1011.2
20260903224201 76 276 4.0 12.0 0.00 0.00 0.00 62 1011.3
20260903224058 76 235 3.0 12.0 0.00 0.00 0.00 62 1011.3
20260903223959 76 256 3.0 12.0 0.00 0.00 0.00 62 1011.3
20260903223857 76 252 3.0 12.0 0.00 0.00 0.00 62 1011.2
20260903223756 76 266 3.0 11.0 0.00 0.00 0.00 63 1011.3
20260903223743 76 267 3.0 11.0 0.00 0.00 0.00 63 1011.3
20260903223657 76 207 3.0 11.0 0.00 0.00 0.00 63 1011.3
20260903223556 75 242 3.0 11.0 0.00 0.00 0.00 63 1011.4
20260903223456 75 211 3.0 11.0 0.00 0.00 0.00 63 1011.4
20260903223356 75 284 3.0 11.0 0.00 0.00 0.00 63 1011.4
20260903223252 75 281 4.0 11.0 0.00 0.00 0.00 63 1011.4
20260903223151 75 235 4.0 11.0 0.00 0.00 0.00 63 1011.5
20260903223050 75 273 4.0 11.0 0.00 0.00 0.00 64 1011.4
20260903223000 75 236 5.0 14.0 0.00 0.00 0.00 63 1011.5
20260903222951 75 255 5.0 11.0 0.00 0.00 0.00 63 1011.5
20260903222858 75 267 5.0 14.0 0.00 0.00 0.00 63 1011.5
20260903222849 75 266 5.0 14.0 0.00 0.00 0.00 63 1011.5
20260903222643 75 229 5.0 14.0 0.00 0.00 0.00 63 1011.5
20260903222542 75 223 5.0 14.0 0.00 0.00 0.00 63 1011.6
20260903222443 75 280 5.0 14.0 0.00 0.00 0.00 63 1011.5
20260903222342 75 243 5.0 14.0 0.00 0.00 0.00 63 1011.6
20260903222242 74 217 5.0 14.0 0.00 0.00 0.00 63 1011.6
20260903222138 74 249 4.0 14.0 0.00 0.00 0.00 63 1011.6
20260903222036 75 256 4.0 14.0 0.00 0.00 0.00 62 1011.5
20260903221937 75 243 4.0 14.0 0.00 0.00 0.00 62 1011.6
20260903221834 75 259 4.0 13.0 0.00 0.00 0.00 63 1011.6
20260903221738 75 274 4.0 13.0 0.00 0.00 0.00 63 1011.6
20260903221729 75 214 4.0 13.0 0.00 0.00 0.00 63 1011.6
20260903221629 75 240 4.0 13.0 0.00 0.00 0.00 63 1011.5
20260903221529 75 239 4.0 13.0 0.00 0.00 0.00 63 1011.5
20260903221429 75 274 4.0 13.0 0.00 0.00 0.00 63 1011.5
20260903221326 75 245 4.0 13.0 0.00 0.00 0.00 63 1011.6
20260903221237 75 243 4.0 13.0 0.00 0.00 0.00 63 1011.6
20260903221220 75 229 4.0 13.0 0.00 0.00 0.00 63 1011.6
20260903221124 75 296 4.0 13.0 0.00 0.00 0.00 63 1011.6
20260903221021 75 256 3.0 13.0 0.00 0.00 0.00 63 1011.7
20260903220920 75 231 4.0 13.0 0.00 0.00 0.00 62 1011.7
20260903220818 75 256 4.0 13.0 0.00 0.00 0.00 62 1011.7
20260903220739 75 235 3.0 13.0 0.00 0.00 0.00 62 1011.7
20260903220712 75 246 3.0 13.0 0.00 0.00 0.00 62 1011.7
20260903220613 76 262 3.0 9.0 0.00 0.00 0.00 62 1011.8
20260903220512 76 243 3.0 9.0 0.00 0.00 0.00 62 1011.8
20260903220412 76 238 3.0 9.0 0.00 0.00 0.00 61 1011.8
20260903220312 76 203 2.0 9.0 0.00 0.00 0.00 62 1011.8
20260903220235 76 253 2.0 9.0 0.00 0.00 0.00 62 1011.8
20260903220208 76 193 2.0 9.0 0.00 0.00 0.00 62 1011.8
20260903220107 76 253 3.0 9.0 0.00 0.00 0.00 62 1011.8
20260903220007 76 218 3.0 9.0 0.00 0.00 0.00 61 1011.9
20260903220000 76 271 4.0 13.0 0.00 0.00 0.00 62 1011.9
20260903215907 76 245 3.0 11.0 0.00 0.00 0.00 61 1011.9
20260903215848 76 321 4.0 13.0 0.00 0.00 0.00 61 1011.9
20260903215657 76 205 4.0 13.0 0.00 0.00 0.00 62 1011.8
20260903215558 76 240 4.0 13.0 0.00 0.00 0.00 62 1011.9
20260903215458 76 232 4.0 13.0 0.00 0.00 0.00 62 1011.9
20260903215357 76 257 4.0 13.0 0.00 0.00 0.00 62 1011.9
20260903215257 76 226 4.0 13.0 0.00 0.00 0.00 62 1011.9
20260903215232 76 200 4.0 13.0 0.00 0.00 0.00 62 1011.9
20260903215152 76 248 4.0 13.0 0.00 0.00 0.00 62 1012.0
20260903215052 76 242 4.0 13.0 0.00 0.00 0.00 61 1011.9
20260903214954 76 222 3.0 13.0 0.00 0.00 0.00 60 1012.0
20260903214852 76 239 2.0 11.0 0.00 0.00 0.00 60 1011.9
20260903214750 76 230 2.0 9.0 0.00 0.00 0.00 60 1011.9
20260903214737 76 238 2.0 8.0 0.00 0.00 0.00 60 1011.9
20260903214644 76 287 2.0 8.0 0.00 0.00 0.00 60 1011.9
20260903214544 76 207 2.0 9.0 0.00 0.00 0.00 60 1011.9
20260903214455 76 232 2.0 11.0 0.00 0.00 0.00 61 1012.0
20260903214444 76 148 2.0 11.0 0.00 0.00 0.00 60 1011.9
20260903214352 76 214 2.0 11.0 0.00 0.00 0.00 61 1011.9
20260903214343 76 243 2.0 11.0 0.00 0.00 0.00 61 1012.0
20260903214140 76 281 2.0 11.0 0.00 0.00 0.00 61 1012.0
20260903214040 76 231 2.0 11.0 0.00 0.00 0.00 61 1012.0
20260903213940 76 243 3.0 11.0 0.00 0.00 0.00 61 1012.0
20260903213838 76 234 3.0 11.0 0.00 0.00 0.00 61 1012.0
20260903213740 76 253 4.0 13.0 0.00 0.00 0.00 61 1012.1
20260903213632 76 263 4.0 13.0 0.00 0.00 0.00 61 1012.1
20260903213532 76 208 4.0 13.0 0.00 0.00 0.00 62 1012.0
20260903213432 76 307 4.0 13.0 0.00 0.00 0.00 61 1012.1
20260903213332 76 240 4.0 13.0 0.00 0.00 0.00 61 1012.0
20260903213230 75 228 5.0 13.0 0.00 0.00 0.00 61 1012.0
20260903213125 75 223 5.0 13.0 0.00 0.00 0.00 61 1012.1
20260903213024 75 243 6.0 13.0 0.00 0.00 0.00 60 1012.1
20260903212924 75 214 6.0 13.0 0.00 0.00 0.00 60 1012.1
20260903212824 76 219 6.0 13.0 0.00 0.00 0.00 60 1012.1
20260903212724 76 238 6.0 13.0 0.00 0.00 0.00 60 1012.1
20260903212618 76 218 5.0 13.0 0.00 0.00 0.00 61 1012.2
20260903212518 75 219 6.0 13.0 0.00 0.00 0.00 61 1012.2
20260903212417 75 233 6.0 13.0 0.00 0.00 0.00 61 1012.2
20260903212318 75 221 5.0 13.0 0.00 0.00 0.00 60 1012.2
20260903212220 75 222 5.0 13.0 0.00 0.00 0.00 60 1012.2
20260903212112 76 216 5.0 13.0 0.00 0.00 0.00 60 1012.2
20260903212012 76 222 4.0 13.0 0.00 0.00 0.00 60 1012.2
20260903211912 76 198 4.0 13.0 0.00 0.00 0.00 60 1012.2
20260903211812 76 250 4.0 10.0 0.00 0.00 0.00 60 1012.2
20260903211713 76 225 4.0 10.0 0.00 0.00 0.00 60 1012.2
20260903211608 76 236 4.0 12.0 0.00 0.00 0.00 59 1012.2
20260903211510 76 198 4.0 12.0 0.00 0.00 0.00 60 1012.3
20260903211408 76 239 4.0 12.0 0.00 0.00 0.00 60 1012.3
20260903211308 76 262 4.0 12.0 0.00 0.00 0.00 60 1012.3
20260903211206 76 252 4.0 12.0 0.00 0.00 0.00 60 1012.2
20260903211101 76 243 3.0 12.0 0.00 0.00 0.00 59 1012.2
20260903211000 76 243 3.0 12.0 0.00 0.00 0.00 59 1012.2
20260903210901 77 263 3.0 12.0 0.00 0.00 0.00 59 1012.2
20260903210800 77 238 2.0 12.0 0.00 0.00 0.00 59 1012.2
20260903210706 77 290 2.0 12.0 0.00 0.00 0.00 59 1012.2
20260903210700 77 230 2.0 12.0 0.00 0.00 0.00 59 1012.2
20260903210557 77 250 2.0 8.0 0.00 0.00 0.00 59 1012.2
20260903210456 77 282 2.0 8.0 0.00 0.00 0.00 59 1012.2
20260903210425 77 286 2.0 8.0 0.00 0.00 0.00 60 1012.3
20260903210356 77 250 2.0 8.0 0.00 0.00 0.00 59 1012.2
20260903210311 77 131 2.0 7.0 0.00 0.00 0.00 59 1012.3
20260903210154 77 216 2.0 8.0 0.00 0.00 0.00 60 1012.3
20260903210049 77 256 2.0 8.0 0.00 0.00 0.00 60 1012.3
20260903205949 77 274 2.0 10.0 0.00 0.00 0.00 60 1012.3
20260903205848 77 228 2.0 10.0 0.00 0.00 0.00 60 1012.3
20260903205748 77 350 2.0 10.0 0.00 0.00 0.00 60 1012.3
20260903205701 77 245 3.0 10.0 0.00 0.00 0.00 60 1012.4
20260903205647 77 245 3.0 10.0 0.00 0.00 0.00 59 1012.4
20260903205544 77 270 3.0 10.0 0.00 0.00 0.00 59 1012.3
20260903205442 77 214 3.0 10.0 0.00 0.00 0.00 60 1012.3
20260903205341 77 246 3.0 10.0 0.00 0.00 0.00 59 1012.4
20260903205242 77 239 3.0 10.0 0.00 0.00 0.00 59 1012.3
20260903205201 77 245 3.0 10.0 0.00 0.00 0.00 59 1012.3
20260903205141 76 262 3.0 10.0 0.00 0.00 0.00 60 1012.3
20260903205040 76 158 3.0 10.0 0.00 0.00 0.00 60 1012.3
20260903204939 76 226 2.0 10.0 0.00 0.00 0.00 60 1012.3
20260903204840 76 298 3.0 10.0 0.00 0.00 0.00 60 1012.4
20260903204738 76 294 3.0 10.0 0.00 0.00 0.00 59 1012.4
20260903204701 76 294 3.0 10.0 0.00 0.00 0.00 59 1012.4
20260903204636 76 295 3.0 10.0 0.00 0.00 0.00 60 1012.4
20260903204530 76 263 3.0 10.0 0.00 0.00 0.00 60 1012.4
20260903204429 77 238 3.0 12.0 0.00 0.00 0.00 59 1012.4
20260903204330 77 235 3.0 12.0 0.00 0.00 0.00 59 1012.4
20260903204230 77 233 3.0 12.0 0.00 0.00 0.00 59 1012.4
20260903204201 77 291 3.0 12.0 0.00 0.00 0.00 59 1012.4
20260903204130 77 276 3.0 12.0 0.00 0.00 0.00 59 1012.4
20260903204026 77 248 3.0 12.0 0.00 0.00 0.00 58 1012.4
20260903203926 77 216 2.0 12.0 0.00 0.00 0.00 58 1012.5
20260903203825 77 239 2.0 12.0 0.00 0.00 0.00 58 1012.5
20260903203729 77 271 2.0 13.0 0.00 0.00 0.00 58 1012.5
20260903203659 77 243 3.0 13.0 0.00 0.00 0.00 58 1012.5
20260903203625 77 226 3.0 13.0 0.00 0.00 0.00 58 1012.5
20260903203520 77 291 3.0 13.0 0.00 0.00 0.00 58 1012.5
20260903203420 77 228 2.0 13.0 0.00 0.00 0.00 58 1012.5
20260903203320 77 212 2.0 13.0 0.00 0.00 0.00 59 1012.5
20260903203220 77 233 2.0 13.0 0.00 0.00 0.00 59 1012.5
20260903203158 77 310 3.0 13.0 0.00 0.00 0.00 59 1012.5
20260903203117 77 284 3.0 13.0 0.00 0.00 0.00 59 1012.5
20260903203013 77 164 3.0 13.0 0.00 0.00 0.00 59 1012.5
20260903202912 77 267 2.0 13.0 0.00 0.00 0.00 59 1012.5
20260903202813 77 248 2.0 13.0 0.00 0.00 0.00 58 1012.5
20260903202712 77 173 2.0 12.0 0.00 0.00 0.00 58 1012.5
20260903202656 77 208 2.0 11.0 0.00 0.00 0.00 58 1012.5
20260903202612 77 156 1.0 8.0 0.00 0.00 0.00 58 1012.6
20260903202508 77 218 2.0 8.0 0.00 0.00 0.00 59 1012.6
20260903202406 77 243 2.0 8.0 0.00 0.00 0.00 59 1012.5
20260903202306 76 236 2.0 9.0 0.00 0.00 0.00 59 1012.5
20260903202205 76 243 2.0 9.0 0.00 0.00 0.00 59 1012.5
20260903202155 76 252 2.0 9.0 0.00 0.00 0.00 60 1012.5
20260903202103 76 255 3.0 10.0 0.00 0.00 0.00 60 1012.5
20260903202000 76 255 3.0 13.0 0.00 0.00 0.00 60 1012.5
20260903201857 76 255 4.0 13.0 0.00 0.00 0.00 61 1012.6
20260903201758 75 287 5.0 13.0 0.00 0.00 0.00 61 1012.6
20260903201659 75 229 5.0 15.0 0.00 0.00 0.00 61 1012.6
20260903201555 75 217 6.0 15.0 0.00 0.00 0.00 60 1012.6
20260903201450 75 193 6.0 15.0 0.00 0.00 0.00 60 1012.6
20260903201350 75 245 5.0 15.0 0.00 0.00 0.00 59 1012.6
20260903201250 75 260 5.0 15.0 0.00 0.00 0.00 60 1012.6
20260903201156 75 208 5.0 15.0 0.00 0.00 0.00 59 1012.7
20260903201151 75 200 5.0 15.0 0.00 0.00 0.00 59 1012.7
20260903201048 75 270 5.0 15.0 0.00 0.00 0.00 59 1012.6
20260903200942 75 240 4.0 15.0 0.00 0.00 0.00 59 1012.7
20260903200842 76 239 4.0 15.0 0.00 0.00 0.00 58 1012.7
20260903200742 76 208 3.0 13.0 0.00 0.00 0.00 58 1012.7
20260903200653 76 277 3.0 10.0 0.00 0.00 0.00 59 1012.7
20260903200642 76 281 3.0 10.0 0.00 0.00 0.00 59 1012.7
20260903200542 76 243 3.0 10.0 0.00 0.00 0.00 59 1012.7
20260903200442 76 236 3.0 10.0 0.00 0.00 0.00 60 1012.7
20260903200342 76 260 4.0 10.0 0.00 0.00 0.00 60 1012.7
20260903200242 75 225 4.0 11.0 0.00 0.00 0.00 60 1012.7
20260903200151 75 187 4.0 11.0 0.00 0.00 0.00 60 1012.7
20260903200143 75 246 4.0 11.0 0.00 0.00 0.00 60 1012.7
20260903200042 75 235 4.0 11.0 0.00 0.00 0.00 60 1012.8
20260903195942 75 257 4.0 11.0 0.00 0.00 0.00 61 1012.8
20260903195840 75 246 4.0 11.0 0.00 0.00 0.00 61 1012.8
20260903195740 75 211 4.0 12.0 0.00 0.00 0.00 61 1012.8
20260903195650 75 236 4.0 12.0 0.00 0.00 0.00 61 1012.8
20260903195641 75 241 4.0 12.0 0.00 0.00 0.00 61 1012.8
20260903195538 75 253 4.0 12.0 0.00 0.00 0.00 60 1012.8
20260903195438 76 228 4.0 12.0 0.00 0.00 0.00 60 1012.9
20260903195336 76 252 3.0 12.0 0.00 0.00 0.00 61 1012.9
20260903195236 76 245 3.0 12.0 0.00 0.00 0.00 61 1012.9
20260903195151 75 245 3.0 12.0 0.00 0.00 0.00 61 1012.9
20260903195137 75 238 3.0 12.0 0.00 0.00 0.00 61 1012.9
20260903195036 76 201 3.0 12.0 0.00 0.00 0.00 60 1013.0
20260903194935 76 233 3.0 12.0 0.00 0.00 0.00 60 1013.0
20260903194836 76 219 2.0 12.0 0.00 0.00 0.00 60 1013.0
20260903194734 76 245 2.0 7.0 0.00 0.00 0.00 60 1012.9
20260903194651 76 235 2.0 7.0 0.00 0.00 0.00 60 1012.9
20260903194635 76 226 2.0 7.0 0.00 0.00 0.00 60 1012.9
20260903194533 76 298 2.0 7.0 0.00 0.00 0.00 61 1013.0
20260903194432 76 298 2.0 7.0 0.00 0.00 0.00 61 1012.9
20260903194330 76 307 2.0 7.0 0.00 0.00 0.00 60 1012.9
20260903194228 76 225 2.0 7.0 0.00 0.00 0.00 60 1012.9
20260903194144 76 256 2.0 7.0 0.00 0.00 0.00 60 1012.9
20260903194129 76 284 2.0 7.0 0.00 0.00 0.00 60 1012.9
20260903194028 76 238 2.0 7.0 0.00 0.00 0.00 61 1013.0
20260903193926 76 248 2.0 8.0 0.00 0.00 0.00 61 1013.0
20260903193823 76 248 3.0 9.0 0.00 0.00 0.00 61 1013.0
20260903193727 76 245 3.0 9.0 0.00 0.00 0.00 60 1013.0
20260903193625 76 245 3.0 9.0 0.00 0.00 0.00 62 1013.0
20260903193519 76 245 3.0 9.0 0.00 0.00 0.00 61 1013.0
20260903193420 76 198 3.0 9.0 0.00 0.00 0.00 60 1013.1
20260903193317 76 226 4.0 9.0 0.00 0.00 0.00 60 1013.1
20260903193212 76 235 4.0 9.0 0.00 0.00 0.00 60 1013.1
20260903193132 76 238 4.0 9.0 0.00 0.00 0.00 60 1013.1
20260903193112 76 271 5.0 11.0 0.00 0.00 0.00 60 1013.1
20260903193011 76 263 5.0 14.0 0.00 0.00 0.00 60 1013.1
20260903192912 76 245 5.0 14.0 0.00 0.00 0.00 59 1013.1
20260903192812 76 246 4.0 14.0 0.00 0.00 0.00 59 1013.2
20260903192706 76 253 4.0 14.0 0.00 0.00 0.00 60 1013.2
20260903192626 76 256 4.0 14.0 0.00 0.00 0.00 60 1013.2
20260903192606 76 300 4.0 14.0 0.00 0.00 0.00 60 1013.1
20260903192506 76 180 4.0 14.0 0.00 0.00 0.00 59 1013.2
20260903192406 76 226 3.0 14.0 0.00 0.00 0.00 58 1013.1
20260903192306 77 235 3.0 14.0 0.00 0.00 0.00 57 1013.2
20260903192200 77 249 3.0 14.0 0.00 0.00 0.00 56 1013.2
20260903192121 78 238 3.0 14.0 0.00 0.00 0.00 56 1013.2
20260903192100 78 243 2.0 12.0 0.00 0.00 0.00 56 1013.2
20260903192000 78 145 2.0 10.0 0.00 0.00 0.00 56 1013.2
20260903191900 78 218 2.0 10.0 0.00 0.00 0.00 57 1013.2
20260903191759 78 228 3.0 10.0 0.00 0.00 0.00 57 1013.2
20260903191701 78 228 3.0 10.0 0.00 0.00 0.00 58 1013.2
20260903191615 78 225 3.0 10.0 0.00 0.00 0.00 58 1013.3
20260903191557 77 225 3.0 10.0 0.00 0.00 0.00 58 1013.3
20260903191455 77 224 3.0 10.0 0.00 0.00 0.00 58 1013.2
20260903191356 77 225 3.0 10.0 0.00 0.00 0.00 58 1013.3
20260903191332 77 212 3.0 10.0 0.00 0.00 0.00 58 1013.3
20260903191253 77 300 3.0 10.0 0.00 0.00 0.00 58 1013.3
20260903191219 77 246 3.0 10.0 0.00 0.00 0.00 58 1013.3
20260903191048 77 187 3.0 10.0 0.00 0.00 0.00 59 1013.3
20260903190947 77 231 2.0 10.0 0.00 0.00 0.00 58 1013.3
20260903190848 77 243 2.0 8.0 0.00 0.00 0.00 59 1013.3
20260903190747 76 256 2.0 8.0 0.00 0.00 0.00 59 1013.3
20260903190644 76 243 2.0 8.0 0.00 0.00 0.00 60 1013.3
20260903190602 76 221 2.0 8.0 0.00 0.00 0.00 60 1013.4
20260903190544 76 141 2.0 8.0 0.00 0.00 0.00 60 1013.4
20260903190444 76 236 3.0 9.0 0.00 0.00 0.00 60 1013.4
20260903190343 76 248 3.0 9.0 0.00 0.00 0.00 61 1013.4
20260903190241 76 248 2.0 9.0 0.00 0.00 0.00 61 1013.4
20260903190138 75 278 3.0 9.0 0.00 0.00 0.00 62 1013.4
20260903190109 75 50 2.0 9.0 0.00 0.00 0.00 62 1013.4
20260903190036 75 68 2.0 9.0 0.00 0.00 0.00 61 1013.4
20260903185937 75 246 2.0 9.0 0.00 0.00 0.00 61 1013.4
20260903185836 75 203 2.0 9.0 0.00 0.00 0.00 62 1013.4
20260903185735 75 142 2.0 9.0 0.00 0.00 0.00 61 1013.5
20260903185633 75 246 2.0 9.0 0.00 0.00 0.00 59 1013.5
20260903185550 76 246 2.0 9.0 0.00 0.00 0.00 59 1013.5
20260903185530 76 221 2.0 9.0 0.00 0.00 0.00 60 1013.5
20260903185430 76 248 1.0 7.0 0.00 0.00 0.00 61 1013.4
20260903185329 76 214 1.0 7.0 0.00 0.00 0.00 62 1013.5
20260903185306 76 256 1.0 7.0 0.00 0.00 0.00 62 1013.5
20260903185229 76 164 1.0 7.0 0.00 0.00 0.00 61 1013.5
20260903185156 76 172 1.0 7.0 0.00 0.00 0.00 62 1013.5
20260903185027 76 342 1.0 7.0 0.00 0.00 0.00 62 1013.5
20260903184928 76 342 1.0 7.0 0.00 0.00 0.00 62 1013.5
20260903184826 75 246 1.0 7.0 0.00 0.00 0.00 62 1013.5
20260903184726 75 253 1.0 7.0 0.00 0.00 0.00 62 1013.5
20260903184624 76 222 1.0 7.0 0.00 0.00 0.00 62 1013.6
20260903184538 76 242 1.0 7.0 0.00 0.00 0.00 62 1013.6
20260903184522 76 233 1.0 4.0 0.00 0.00 0.00 63 1013.6
20260903184422 75 228 1.0 4.0 0.00 0.00 0.00 62 1013.6
20260903184320 75 245 1.0 3.0 0.00 0.00 0.00 63 1013.6
20260903184218 75 204 1.0 2.0 0.00 0.00 0.00 63 1013.7
20260903184112 75 203 1.0 8.0 0.00 0.00 0.00 63 1013.6
20260903184033 75 238 1.0 8.0 0.00 0.00 0.00 63 1013.6
20260903184012 75 238 1.0 8.0 0.00 0.00 0.00 64 1013.6
20260903183912 75 238 1.0 8.0 0.00 0.00 0.00 63 1013.7
20260903183812 75 238 1.0 8.0 0.00 0.00 0.00 64 1013.7
20260903183711 75 236 2.0 9.0 0.00 0.00 0.00 64 1013.7
20260903183608 75 226 2.0 9.0 0.00 0.00 0.00 64 1013.7
20260903183526 75 256 2.0 9.0 0.00 0.00 0.00 64 1013.7
20260903183506 75 256 3.0 9.0 0.00 0.00 0.00 64 1013.7
20260903183405 75 256 3.0 9.0 0.00 0.00 0.00 64 1013.7
20260903183306 75 256 3.0 9.0 0.00 0.00 0.00 65 1013.7
20260903183205 74 255 3.0 9.0 0.00 0.00 0.00 64 1013.7
20260903183101 74 221 3.0 9.0 0.00 0.00 0.00 64 1013.7
20260903183021 74 192 3.0 9.0 0.00 0.00 0.00 64 1013.7
20260903183000 74 182 4.0 9.0 0.00 0.00 0.00 65 1013.7
20260903182900 74 250 4.0 9.0 0.00 0.00 0.00 64 1013.8
20260903182800 74 141 4.0 9.0 0.00 0.00 0.00 65 1013.7
20260903182700 74 163 4.0 8.0 0.00 0.00 0.00 65 1013.8
20260903182553 74 226 4.0 8.0 0.00 0.00 0.00 64 1013.8
20260903182514 74 212 4.0 8.0 0.00 0.00 0.00 65 1013.7
20260903182453 73 166 4.0 8.0 0.00 0.00 0.00 65 1013.7
20260903182354 73 230 4.0 8.0 0.00 0.00 0.00 65 1013.7
20260903182254 73 203 4.0 9.0 0.00 0.00 0.00 66 1013.7
20260903182153 73 211 4.0 9.0 0.00 0.00 0.00 67 1013.7
20260903182052 73 160 4.0 9.0 0.00 0.00 0.00 67 1013.8
20260903182008 72 139 4.0 9.0 0.00 0.00 0.00 67 1013.8
20260903181952 72 216 4.0 9.0 0.00 0.00 0.00 67 1013.8
20260903181850 72 198 4.0 9.0 0.00 0.00 0.00 68 1013.8
20260903181749 72 250 4.0 9.0 0.00 0.00 0.00 68 1013.9
20260903181648 72 240 4.0 9.0 0.00 0.00 0.00 67 1013.8
20260903181544 72 243 4.0 9.0 0.00 0.00 0.00 67 1013.9
20260903181503 72 232 4.0 9.0 0.00 0.00 0.00 67 1013.9
20260903181444 72 224 4.0 9.0 0.00 0.00 0.00 67 1013.9
20260903181345 72 242 4.0 10.0 0.00 0.00 0.00 66 1013.9
20260903181244 72 248 4.0 10.0 0.00 0.00 0.00 67 1013.9
20260903181143 72 235 4.0 10.0 0.00 0.00 0.00 67 1013.9
20260903181037 72 243 4.0 10.0 0.00 0.00 0.00 67 1013.9
20260903180956 72 231 4.0 10.0 0.00 0.00 0.00 68 1013.9
20260903180937 72 238 4.0 10.0 0.00 0.00 0.00 69 1013.9
20260903180836 72 230 4.0 10.0 0.00 0.00 0.00 68 1013.9
20260903180736 72 238 4.0 10.0 0.00 0.00 0.00 68 1013.9
20260903180636 72 204 4.0 10.0 0.00 0.00 0.00 67 1013.9
20260903180530 72 222 3.0 10.0 0.00 0.00 0.00 67 1013.9
20260903180450 72 217 3.0 10.0 0.00 0.00 0.00 66 1013.9
20260903180430 73 259 3.0 10.0 0.00 0.00 0.00 66 1013.9
20260903180331 73 259 2.0 8.0 0.00 0.00 0.00 66 1013.9
20260903180230 73 231 2.0 8.0 0.00 0.00 0.00 68 1013.9
20260903180131 73 146 2.0 6.0 0.00 0.00 0.00 68 1013.9
20260903180026 72 215 3.0 8.0 0.00 0.00 0.00 69 1013.9
20260903175944 72 238 3.0 8.0 0.00 0.00 0.00 68 1013.9
20260903175925 72 212 3.0 8.0 0.00 0.00 0.00 68 1013.9
20260903175824 72 235 3.0 8.0 0.00 0.00 0.00 68 1013.9
20260903175724 72 224 3.0 8.0 0.00 0.00 0.00 69 1013.9
20260903175625 72 169 2.0 8.0 0.00 0.00 0.00 70 1013.9
20260903175520 71 266 3.0 8.0 0.00 0.00 0.00 69 1013.9
20260903175445 71 267 3.0 8.0 0.00 0.00 0.00 68 1014.0
20260903175420 71 231 3.0 8.0 0.00 0.00 0.00 68 1014.0
20260903175319 72 137 3.0 8.0 0.00 0.00 0.00 67 1014.0
20260903175220 72 233 3.0 8.0 0.00 0.00 0.00 68 1014.0
20260903175122 72 183 3.0 8.0 0.00 0.00 0.00 67 1014.0
20260903175019 72 273 3.0 8.0 0.00 0.00 0.00 69 1014.0
20260903174945 72 246 3.0 8.0 0.00 0.00 0.00 69 1014.0
20260903174920 72 241 3.0 8.0 0.00 0.00 0.00 69 1014.0
20260903174818 71 215 2.0 8.0 0.00 0.00 0.00 70 1014.0
20260903174718 71 217 3.0 8.0 0.00 0.00 0.00 69 1014.0
20260903174616 71 218 3.0 8.0 0.00 0.00 0.00 68 1014.0
20260903174506 71 232 3.0 8.0 0.00 0.00 0.00 69 1014.0
20260903174445 71 177 3.0 8.0 0.00 0.00 0.00 69 1014.0
20260903174404 71 225 3.0 8.0 0.00 0.00 0.00 69 1014.1
20260903174305 71 238 2.0 8.0 0.00 0.00 0.00 69 1014.1
20260903174204 71 150 2.0 6.0 0.00 0.00 0.00 69 1014.1
20260903174102 71 145 2.0 6.0 0.00 0.00 0.00 69 1014.1
20260903174000 71 203 2.0 6.0 0.00 0.00 0.00 69 1014.1
20260903173945 71 207 2.0 6.0 0.00 0.00 0.00 69 1014.1
20260903173858 71 201 2.0 6.0 0.00 0.00 0.00 70 1014.1
20260903173758 71 164 2.0 6.0 0.00 0.00 0.00 72 1014.1
20260903173658 70 134 2.0 6.0 0.00 0.00 0.00 71 1014.1
20260903173555 70 180 2.0 6.0 0.00 0.00 0.00 72 1014.1
20260903173456 70 161 2.0 7.0 0.00 0.00 0.00 72 1014.1
20260903173445 70 191 2.0 7.0 0.00 0.00 0.00 72 1014.1
20260903173353 70 191 2.0 7.0 0.00 0.00 0.00 72 1014.1
20260903173254 69 219 2.0 7.0 0.00 0.00 0.00 73 1014.1
20260903173153 69 219 2.0 7.0 0.00 0.00 0.00 73 1014.0
20260903173049 69 219 2.0 7.0 0.00 0.00 0.00 74 1014.1
20260903172947 69 226 3.0 7.0 0.00 0.00 0.00 73 1014.1
20260903172843 69 173 3.0 9.0 0.00 0.00 0.00 73 1014.1
20260903172744 69 129 3.0 9.0 0.00 0.00 0.00 74 1014.1
20260903172645 68 233 3.0 9.0 0.00 0.00 0.00 74 1014.1
20260903172543 68 198 3.0 9.0 0.00 0.00 0.00 75 1014.1
20260903172440 68 207 3.0 9.0 0.00 0.00 0.00 75 1014.1
20260903172341 68 203 3.0 9.0 0.00 0.00 0.00 75 1014.2
20260903172239 68 242 4.0 9.0 0.00 0.00 0.00 74 1014.2
20260903172212 68 253 3.0 9.0 0.00 0.00 0.00 74 1014.2
20260903172139 68 233 4.0 9.0 0.00 0.00 0.00 74 1014.2
20260903172104 68 243 4.0 9.0 0.00 0.00 0.00 74 1014.2
20260903171932 68 212 3.0 8.0 0.00 0.00 0.00 74 1014.2
20260903171832 68 284 3.0 8.0 0.00 0.00 0.00 74 1014.3
20260903171732 68 233 3.0 8.0 0.00 0.00 0.00 74 1014.2
20260903171712 68 238 3.0 8.0 0.00 0.00 0.00 74 1014.3
20260903171634 68 210 3.0 8.0 0.00 0.00 0.00 75 1014.2
20260903171552 68 210 3.0 8.0 0.00 0.00 0.00 74 1014.3
20260903171426 68 200 3.0 8.0 0.00 0.00 0.00 74 1014.3
20260903171325 68 257 3.0 8.0 0.00 0.00 0.00 74 1014.2
20260903171226 68 245 3.0 6.0 0.00 0.00 0.00 75 1014.3
20260903171127 68 219 3.0 6.0 0.00 0.00 0.00 75 1014.3
20260903171025 68 236 3.0 6.0 0.00 0.00 0.00 75 1014.3
20260903170939 68 170 3.0 6.0 0.00 0.00 0.00 75 1014.3
20260903170917 68 136 3.0 7.0 0.00 0.00 0.00 75 1014.3
20260903170818 67 217 3.0 7.0 0.00 0.00 0.00 75 1014.3
20260903170718 67 154 3.0 7.0 0.00 0.00 0.00 75 1014.3
20260903170622 67 231 3.0 7.0 0.00 0.00 0.00 75 1014.3
20260903170517 67 250 3.0 7.0 0.00 0.00 0.00 75 1014.3
20260903170439 67 235 3.0 7.0 0.00 0.00 0.00 75 1014.3
20260903170416 67 259 3.0 7.0 0.00 0.00 0.00 75 1014.3
20260903170315 67 243 3.0 7.0 0.00 0.00 0.00 75 1014.3
20260903170216 67 284 3.0 7.0 0.00 0.00 0.00 76 1014.3
20260903170119 67 143 3.0 7.0 0.00 0.00 0.00 75 1014.3
20260903170016 67 236 3.0 7.0 0.00 0.00 0.00 75 1014.3
20260903165939 67 226 3.0 7.0 0.00 0.00 0.00 75 1014.3
20260903165916 67 256 3.0 7.0 0.00 0.00 0.00 75 1014.3
20260903165816 67 238 2.0 7.0 0.00 0.00 0.00 75 1014.3
20260903165716 68 226 2.0 6.0 0.00 0.00 0.00 74 1014.3
20260903165621 68 222 2.0 6.0 0.00 0.00 0.00 75 1014.3
20260903165516 68 214 2.0 6.0 0.00 0.00 0.00 75 1014.3
20260903165416 68 256 2.0 6.0 0.00 0.00 0.00 75 1014.3
20260903165312 68 256 3.0 6.0 0.00 0.00 0.00 75 1014.4
20260903165213 68 233 2.0 8.0 0.00 0.00 0.00 75 1014.3
20260903165112 68 232 2.0 8.0 0.00 0.00 0.00 75 1014.4
20260903165012 68 232 2.0 8.0 0.00 0.00 0.00 75 1014.4
20260903164937 68 239 2.0 8.0 0.00 0.00 0.00 75 1014.4
20260903164912 68 217 2.0 8.0 0.00 0.00 0.00 76 1014.3
20260903164811 67 198 2.0 8.0 0.00 0.00 0.00 76 1014.4
20260903164706 67 198 2.0 8.0 0.00 0.00 0.00 75 1014.4
20260903164606 67 223 2.0 8.0 0.00 0.00 0.00 75 1014.4
20260903164506 67 228 2.0 8.0 0.00 0.00 0.00 75 1014.4
20260903164438 67 212 2.0 8.0 0.00 0.00 0.00 75 1014.4
20260903164406 67 216 2.0 8.0 0.00 0.00 0.00 74 1014.4
20260903164304 68 249 1.0 8.0 0.00 0.00 0.00 74 1014.4
20260903164204 68 243 1.0 5.0 0.00 0.00 0.00 75 1014.3
20260903164102 68 218 1.0 5.0 0.00 0.00 0.00 75 1014.3
20260903163936 68 225 2.0 5.0 0.00 0.00 0.00 76 1014.3
20260903163901 67 225 2.0 5.0 0.00 0.00 0.00 75 1014.3
20260903163757 67 225 2.0 5.0 0.00 0.00 0.00 76 1014.4
20260903163658 67 233 2.0 5.0 0.00 0.00 0.00 76 1014.4
20260903163555 67 242 2.0 5.0 0.00 0.00 0.00 75 1014.4
20260903163456 67 237 2.0 5.0 0.00 0.00 0.00 75 1014.4
20260903163430 67 235 2.0 5.0 0.00 0.00 0.00 75 1014.4
20260903163354 67 231 2.0 5.0 0.00 0.00 0.00 75 1014.4
20260903163251 68 225 2.0 5.0 0.00 0.00 0.00 74 1014.4
20260903163146 68 210 2.0 5.0 0.00 0.00 0.00 74 1014.4
20260903163046 68 233 2.0 5.0 0.00 0.00 0.00 75 1014.4
20260903162946 68 138 1.0 5.0 0.00 0.00 0.00 75 1014.4
20260903162924 68 231 1.0 5.0 0.00 0.00 0.00 75 1014.4
20260903162846 68 166 1.0 5.0 0.00 0.00 0.00 75 1014.4
20260903162746 68 170 1.0 4.0 0.00 0.00 0.00 75 1014.4
20260903162643 68 236 1.0 5.0 0.00 0.00 0.00 74 1014.4
20260903162542 68 235 1.0 5.0 0.00 0.00 0.00 75 1014.4
20260903162442 68 139 1.0 5.0 0.00 0.00 0.00 75 1014.4
20260903162418 68 150 1.0 5.0 0.00 0.00 0.00 75 1014.4
20260903162343 68 246 2.0 5.0 0.00 0.00 0.00 76 1014.5
20260903162240 68 233 2.0 5.0 0.00 0.00 0.00 75 1014.5
20260903162134 68 174 2.0 5.0 0.00 0.00 0.00 76 1014.5
20260903162034 68 149 2.0 6.0 0.00 0.00 0.00 76 1014.5
20260903161934 68 146 2.0 6.0 0.00 0.00 0.00 75 1014.5
20260903161912 68 219 3.0 6.0 0.00 0.00 0.00 74 1014.5
20260903161833 68 219 3.0 6.0 0.00 0.00 0.00 74 1014.5
20260903161734 68 172 2.0 6.0 0.00 0.00 0.00 75 1014.5
20260903161630 68 218 2.0 6.0 0.00 0.00 0.00 75 1014.5
20260903161528 68 226 2.0 6.0 0.00 0.00 0.00 76 1014.5
20260903161427 68 134 2.0 6.0 0.00 0.00 0.00 75 1014.5
20260903161406 68 134 3.0 6.0 0.00 0.00 0.00 75 1014.5
20260903161328 68 226 3.0 6.0 0.00 0.00 0.00 75 1014.5
20260903161228 68 129 3.0 6.0 0.00 0.00 0.00 74 1014.5
20260903161124 68 117 2.0 6.0 0.00 0.00 0.00 75 1014.6
20260903161022 68 148 2.0 6.0 0.00 0.00 0.00 75 1014.6
20260903160922 68 200 2.0 6.0 0.00 0.00 0.00 76 1014.6
20260903160900 68 127 2.0 6.0 0.00 0.00 0.00 77 1014.6
20260903160822 67 158 2.0 6.0 0.00 0.00 0.00 77 1014.6
20260903160722 67 141 2.0 6.0 0.00 0.00 0.00 78 1014.6
20260903160622 67 150 3.0 6.0 0.00 0.00 0.00 77 1014.6
20260903160517 67 143 3.0 6.0 0.00 0.00 0.00 77 1014.6
20260903160416 67 136 3.0 6.0 0.00 0.00 0.00 77 1014.6
20260903160354 67 121 3.0 6.0 0.00 0.00 0.00 77 1014.6
20260903160316 66 108 3.0 6.0 0.00 0.00 0.00 77 1014.6
20260903160216 66 154 3.0 6.0 0.00 0.00 0.00 78 1014.6
20260903160112 66 204 2.0 6.0 0.00 0.00 0.00 78 1014.6
20260903160012 66 184 2.0 6.0 0.00 0.00 0.00 78 1014.6
20260903155912 66 217 3.0 6.0 0.00 0.00 0.00 78 1014.6
20260903155850 66 215 3.0 6.0 0.00 0.00 0.00 78 1014.6
20260903155812 66 241 3.0 6.0 0.00 0.00 0.00 78 1014.6
20260903155714 66 229 3.0 6.0 0.00 0.00 0.00 78 1014.6
20260903155604 66 201 3.0 6.0 0.00 0.00 0.00 78 1014.6
20260903155504 66 118 2.0 6.0 0.00 0.00 0.00 78 1014.6
20260903155404 66 146 2.0 6.0 0.00 0.00 0.00 78 1014.6
20260903155343 66 142 2.0 6.0 0.00 0.00 0.00 79 1014.6
20260903155306 66 137 2.0 6.0 0.00 0.00 0.00 79 1014.6
20260903155204 66 129 3.0 6.0 0.00 0.00 0.00 79 1014.6
20260903155105 66 110 3.0 6.0 0.00 0.00 0.00 79 1014.6
20260903155056 66 141 2.0 6.0 0.00 0.00 0.00 78 1014.7
20260903155002 66 102 3.0 6.0 0.00 0.00 0.00 79 1014.6
20260903154947 66 141 2.0 6.0 0.00 0.00 0.00 78 1014.7
20260903154802 66 150 2.0 6.0 0.00 0.00 0.00 79 1014.7
20260903154658 66 159 2.0 5.0 0.00 0.00 0.00 79 1014.7
20260903154554 66 148 2.0 5.0 0.00 0.00 0.00 80 1014.7
20260903154453 65 122 2.0 5.0 0.00 0.00 0.00 80 1014.7
20260903154352 65 136 2.0 5.0 0.00 0.00 0.00 80 1014.7
20260903154330 65 117 2.0 5.0 0.00 0.00 0.00 80 1014.7
20260903154252 65 111 2.0 5.0 0.00 0.00 0.00 80 1014.7
20260903154152 65 124 2.0 4.0 0.00 0.00 0.00 81 1014.7
20260903154049 65 138 2.0 5.0 0.00 0.00 0.00 81 1014.7
20260903153948 65 146 2.0 5.0 0.00 0.00 0.00 81 1014.7
20260903153848 65 133 2.0 5.0 0.00 0.00 0.00 81 1014.7
20260903153824 64 141 2.0 5.0 0.00 0.00 0.00 81 1014.7
20260903153748 64 231 2.0 5.0 0.00 0.00 0.00 82 1014.8
20260903153647 64 146 3.0 5.0 0.00 0.00 0.00 82 1014.7
20260903153542 64 138 2.0 5.0 0.00 0.00 0.00 83 1014.8
20260903153440 64 154 3.0 5.0 0.00 0.00 0.00 83 1014.8
20260903153340 64 139 3.0 7.0 0.00 0.00 0.00 83 1014.7
20260903153318 64 113 3.0 7.0 0.00 0.00 0.00 83 1014.7
20260903153239 64 120 3.0 7.0 0.00 0.00 0.00 83 1014.8
20260903153140 63 143 3.0 7.0 0.00 0.00 0.00 84 1014.8
20260903153033 63 130 3.0 7.0 0.00 0.00 0.00 85 1014.7
20260903152935 63 144 3.0 7.0 0.00 0.00 0.00 84 1014.8
20260903152834 63 107 3.0 7.0 0.00 0.00 0.00 84 1014.8
20260903152811 62 101 3.0 7.0 0.00 0.00 0.00 84 1014.9
20260903152734 62 92 3.0 7.0 0.00 0.00 0.00 85 1014.9
20260903152634 62 136 3.0 7.0 0.00 0.00 0.00 85 1014.9
20260903152530 62 110 3.0 7.0 0.00 0.00 0.00 85 1014.8
20260903152429 62 105 3.0 7.0 0.00 0.00 0.00 85 1014.8
20260903152330 62 119 3.0 7.0 0.00 0.00 0.00 85 1014.8
20260903152313 62 167 3.0 7.0 0.00 0.00 0.00 85 1014.8
20260903152258 61 100 3.0 6.0 0.00 0.00 0.00 86 1014.8
20260903152230 62 145 3.0 7.0 0.00 0.00 0.00 86 1014.8
20260903152145 62 150 3.0 7.0 0.00 0.00 0.00 86 1014.8
20260903152022 62 101 3.0 7.0 0.00 0.00 0.00 86 1014.8
20260903151932 62 93 3.0 6.0 0.00 0.00 0.00 86 1014.7
20260903151923 61 136 3.0 6.0 0.00 0.00 0.00 86 1014.8
20260903151720 61 113 3.0 6.0 0.00 0.00 0.00 87 1014.8
20260903151620 61 94 3.0 6.0 0.00 0.00 0.00 87 1014.9
20260903151514 61 154 3.0 6.0 0.00 0.00 0.00 87 1014.9
20260903151414 61 93 3.0 6.0 0.00 0.00 0.00 88 1014.9
20260903151320 60 105 3.0 6.0 0.00 0.00 0.00 88 1014.9
20260903151313 60 103 3.0 6.0 0.00 0.00 0.00 88 1014.9
20260903151215 60 121 3.0 6.0 0.00 0.00 0.00 88 1014.9
20260903151114 60 104 3.0 6.0 0.00 0.00 0.00 88 1014.9
20260903151006 60 100 2.0 6.0 0.00 0.00 0.00 88 1014.9
20260903150905 60 99 2.0 6.0 0.00 0.00 0.00 88 1014.9
20260903150812 60 108 2.0 5.0 0.00 0.00 0.00 88 1014.9
20260903150806 60 101 2.0 5.0 0.00 0.00 0.00 88 1014.9
20260903150706 60 96 1.0 5.0 0.00 0.00 0.00 88 1014.9
20260903150605 60 88 1.0 5.0 0.00 0.00 0.00 88 1014.9
20260903150503 60 94 1.0 5.0 0.00 0.00 0.00 89 1014.9
20260903150400 60 98 1.0 5.0 0.00 0.00 0.00 89 1014.9
20260903150314 59 54 1.0 5.0 0.00 0.00 0.00 90 1014.9
20260903150300 59 84 1.0 5.0 0.00 0.00 0.00 90 1014.9
20260903150201 59 104 1.0 3.0 0.00 0.00 0.00 90 1014.9
20260903150057 59 131 1.0 3.0 0.00 0.00 0.00 91 1014.9
20260903150032 58 117 1.0 3.0 0.00 0.00 0.00 90 1014.9
20260903145954 59 166 1.0 3.0 0.00 0.00 0.00 90 1014.9
20260903145923 59 166 1.0 3.0 0.00 0.00 0.00 90 1014.9
20260903145752 58 117 1.0 3.0 0.00 0.00 0.00 90 1014.9
20260903145651 58 105 1.0 3.0 0.00 0.00 0.00 90 1014.9
20260903145549 58 99 1.0 3.0 0.00 0.00 0.00 90 1014.8
20260903145450 58 107 1.0 4.0 0.00 0.00 0.00 90 1014.9
20260903145349 58 107 1.0 4.0 0.00 0.00 0.00 90 1014.8
20260903145309 58 116 1.0 4.0 0.00 0.00 0.00 90 1014.8
20260903145245 58 105 1.0 4.0 0.00 0.00 0.00 90 1014.8
20260903145147 58 158 1.0 4.0 0.00 0.00 0.00 90 1014.8
20260903145043 58 134 1.0 5.0 0.00 0.00 0.00 90 1014.9
20260903144942 58 134 1.0 5.0 0.00 0.00 0.00 90 1014.8
20260903144839 58 131 1.0 5.0 0.00 0.00 0.00 90 1014.8
20260903144809 58 131 1.0 5.0 0.00 0.00 0.00 90 1014.8
20260903144740 58 144 1.0 6.0 0.00 0.00 0.00 90 1014.8
20260903144639 58 143 1.0 6.0 0.00 0.00 0.00 90 1014.8
20260903144535 58 115 1.0 6.0 0.00 0.00 0.00 90 1014.7
20260903144434 58 89 1.0 6.0 0.00 0.00 0.00 90 1014.7
20260903144309 58 139 2.0 6.0 0.00 0.00 0.00 90 1014.7
20260903144232 58 124 2.0 6.0 0.00 0.00 0.00 90 1014.7
20260903144133 58 160 1.0 6.0 0.00 0.00 0.00 90 1014.8
20260903144033 58 143 2.0 6.0 0.00 0.00 0.00 90 1014.7
20260903143932 58 148 2.0 6.0 0.00 0.00 0.00 90 1014.8
20260903143832 58 135 2.0 6.0 0.00 0.00 0.00 90 1014.8
20260903143807 58 159 1.0 6.0 0.00 0.00 0.00 90 1014.9
20260903143733 58 150 1.0 6.0 0.00 0.00 0.00 90 1014.9
20260903143634 58 150 2.0 6.0 0.00 0.00 0.00 90 1014.8
20260903143531 58 150 2.0 6.0 0.00 0.00 0.00 90 1014.7
20260903143430 58 125 2.0 6.0 0.00 0.00 0.00 90 1014.7
20260903143328 58 125 1.0 6.0 0.00 0.00 0.00 91 1014.8
20260903143307 58 127 1.0 5.0 0.00 0.00 0.00 91 1014.7
20260903143228 58 139 1.0 5.0 0.00 0.00 0.00 91 1014.7
20260903143129 58 127 1.0 5.0 0.00 0.00 0.00 91 1014.7
20260903143028 58 130 1.0 5.0 0.00 0.00 0.00 91 1014.7
20260903142929 58 139 1.0 5.0 0.00 0.00 0.00 91 1014.7
20260903142829 58 76 1.0 5.0 0.00 0.00 0.00 91 1014.7
20260903142805 58 139 1.0 5.0 0.00 0.00 0.00 91 1014.7
20260903142724 58 144 1.0 5.0 0.00 0.00 0.00 91 1014.7
20260903142626 58 146 1.0 5.0 0.00 0.00 0.00 91 1014.7
20260903142525 58 150 1.0 5.0 0.00 0.00 0.00 91 1014.7
20260903142424 57 158 1.0 5.0 0.00 0.00 0.00 91 1014.7
20260903142321 57 165 1.0 5.0 0.00 0.00 0.00 91 1014.7
20260903142306 57 170 1.0 5.0 0.00 0.00 0.00 91 1014.6
20260903142216 57 170 1.0 5.0 0.00 0.00 0.00 91 1014.6
20260903142116 57 154 1.0 4.0 0.00 0.00 0.00 91 1014.6
20260903142015 57 101 1.0 4.0 0.00 0.00 0.00 91 1014.7
20260903141915 57 172 1.0 4.0 0.00 0.00 0.00 91 1014.7
20260903141807 57 169 1.0 4.0 0.00 0.00 0.00 91 1014.6
20260903141707 57 111 1.0 4.0 0.00 0.00 0.00 91 1014.6
20260903141609 57 158 1.0 4.0 0.00 0.00 0.00 91 1014.6
20260903141508 57 113 1.0 4.0 0.00 0.00 0.00 91 1014.6
20260903141408 57 115 1.0 4.0 0.00 0.00 0.00 91 1014.6
20260903141309 57 91 1.0 4.0 0.00 0.00 0.00 91 1014.6
20260903141205 57 132 1.0 4.0 0.00 0.00 0.00 91 1014.6
20260903141102 57 107 1.0 4.0 0.00 0.00 0.00 91 1014.6
20260903141002 57 131 1.0 4.0 0.00 0.00 0.00 91 1014.6
20260903140902 57 134 1.0 4.0 0.00 0.00 0.00 91 1014.6
20260903140803 57 186 1.0 4.0 0.00 0.00 0.00 91 1014.6
20260903140658 57 138 1.0 3.0 0.00 0.00 0.00 91 1014.6
20260903140557 57 141 1.0 5.0 0.00 0.00 0.00 91 1014.6
20260903140456 57 134 1.0 5.0 0.00 0.00 0.00 91 1014.6
20260903140356 57 134 1.0 5.0 0.00 0.00 0.00 91 1014.6
20260903140256 57 142 1.0 5.0 0.00 0.00 0.00 91 1014.6
20260903140154 57 108 1.0 5.0 0.00 0.00 0.00 91 1014.6
20260903140049 57 148 1.0 5.0 0.00 0.00 0.00 91 1014.6
20260903135950 57 161 1.0 5.0 0.00 0.00 0.00 91 1014.6
20260903135850 57 113 1.0 5.0 0.00 0.00 0.00 91 1014.6
20260903135750 57 162 1.0 5.0 0.00 0.00 0.00 91 1014.6
20260903135644 57 124 1.0 5.0 0.00 0.00 0.00 91 1014.6
20260903135544 57 158 1.0 3.0 0.00 0.00 0.00 91 1014.6
20260903135444 57 146 1.0 3.0 0.00 0.00 0.00 91 1014.6
20260903135345 57 135 1.0 3.0 0.00 0.00 0.00 91 1014.5
20260903135245 57 146 1.0 3.0 0.00 0.00 0.00 91 1014.5
20260903135140 57 146 1.0 3.0 0.00 0.00 0.00 91 1014.5
20260903135038 57 150 1.0 2.0 0.00 0.00 0.00 91 1014.5
20260903134938 57 150 1.0 3.0 0.00 0.00 0.00 91 1014.5
20260903134838 57 154 1.0 3.0 0.00 0.00 0.00 91 1014.5
20260903134739 57 150 1.0 3.0 0.00 0.00 0.00 91 1014.5
20260903134635 57 104 1.0 3.0 0.00 0.00 0.00 91 1014.5
20260903134531 57 104 1.0 3.0 0.00 0.00 0.00 91 1014.5
20260903134432 57 104 1.0 3.0 0.00 0.00 0.00 91 1014.5
20260903134332 57 94 1.0 3.0 0.00 0.00 0.00 91 1014.5
20260903134232 57 111 1.0 3.0 0.00 0.00 0.00 91 1014.4
20260903134129 57 110 1.0 3.0 0.00 0.00 0.00 91 1014.4
20260903134028 57 114 1.0 3.0 0.00 0.00 0.00 91 1014.4
20260903133928 57 99 1.0 3.0 0.00 0.00 0.00 91 1014.4
20260903133828 57 117 1.0 3.0 0.00 0.00 0.00 91 1014.4
20260903133726 57 109 1.0 3.0 0.00 0.00 0.00 91 1014.4
20260903133623 57 111 1.0 3.0 0.00 0.00 0.00 91 1014.5
20260903133520 57 103 1.0 3.0 0.00 0.00 0.00 91 1014.5
20260903133419 57 117 1.0 3.0 0.00 0.00 0.00 91 1014.4
20260903133320 57 99 1.0 3.0 0.00 0.00 0.00 91 1014.4
20260903133221 57 108 1.0 3.0 0.00 0.00 0.00 91 1014.4
20260903133118 57 114 1.0 3.0 0.00 0.00 0.00 91 1014.4
20260903133014 57 105 1.0 3.0 0.00 0.00 0.00 91 1014.4
20260903132914 57 101 1.0 3.0 0.00 0.00 0.00 91 1014.3
20260903132815 57 158 0.0 3.0 0.00 0.00 0.00 91 1014.4
20260903132715 57 139 1.0 3.0 0.00 0.00 0.00 91 1014.4
20260903132656 57 139 0.0 2.0 0.00 0.00 0.00 91 1014.4
20260903132611 57 139 1.0 3.0 0.00 0.00 0.00 91 1014.4
20260903132538 57 139 0.0 3.0 0.00 0.00 0.00 91 1014.4
20260903132408 57 155 0.0 2.0 0.00 0.00 0.00 91 1014.4
20260903132324 57 155 0.0 2.0 0.00 0.00 0.00 91 1014.4
20260903132314 57 139 0.0 2.0 0.00 0.00 0.00 91 1014.4
20260903132102 57 137 0.0 2.0 0.00 0.00 0.00 91 1014.4
20260903132002 57 136 0.0 2.0 0.00 0.00 0.00 91 1014.4
20260903131902 57 137 0.0 2.0 0.00 0.00 0.00 91 1014.4
20260903131801 57 136 0.0 2.0 0.00 0.00 0.00 91 1014.4
20260903131707 57 151 0.0 2.0 0.00 0.00 0.00 91 1014.5
20260903131702 57 150 0.0 2.0 0.00 0.00 0.00 91 1014.5
20260903131558 57 151 1.0 2.0 0.00 0.00 0.00 91 1014.5
20260903131458 57 93 1.0 2.0 0.00 0.00 0.00 91 1014.5
20260903131358 57 93 1.0 4.0 0.00 0.00 0.00 91 1014.5
20260903131258 57 109 1.0 4.0 0.00 0.00 0.00 91 1014.5
20260903131203 57 108 1.0 4.0 0.00 0.00 0.00 91 1014.5
20260903131156 57 108 1.0 4.0 0.00 0.00 0.00 91 1014.5
20260903131144 57 109 1.0 4.0 0.00 0.00 0.00 91 1014.5
20260903131052 57 109 1.0 4.0 0.00 0.00 0.00 91 1014.5
20260903131030 57 109 1.0 4.0 0.00 0.00 0.00 91 1014.5
20260903130850 57 108 1.0 4.0 0.00 0.00 0.00 91 1014.5
20260903130811 57 109 1.0 4.0 0.00 0.00 0.00 91 1014.5
20260903130653 57 109 1.0 4.0 0.00 0.00 0.00 91 1014.5
20260903130546 57 104 1.0 4.0 0.00 0.00 0.00 91 1014.4
20260903130446 57 104 1.0 4.0 0.00 0.00 0.00 91 1014.4
20260903130345 57 89 1.0 3.0 0.00 0.00 0.00 91 1014.4
20260903130246 57 113 1.0 3.0 0.00 0.00 0.00 91 1014.4
20260903130159 57 108 1.0 3.0 0.00 0.00 0.00 91 1014.5
20260903130144 57 115 1.0 3.0 0.00 0.00 0.00 91 1014.5
20260903130043 57 110 1.0 3.0 0.00 0.00 0.00 91 1014.5
20260903125942 57 119 1.0 3.0 0.00 0.00 0.00 91 1014.4
20260903125842 57 122 1.0 3.0 0.00 0.00 0.00 91 1014.5
20260903125740 57 122 1.0 3.0 0.00 0.00 0.00 91 1014.5
20260903125701 57 113 0.0 3.0 0.00 0.00 0.00 91 1014.5
20260903125638 57 89 0.0 3.0 0.00 0.00 0.00 91 1014.5
20260903125535 57 113 0.0 2.0 0.00 0.00 0.00 91 1014.5
20260903125432 57 117 0.0 2.0 0.00 0.00 0.00 91 1014.5
20260903125332 57 117 0.0 2.0 0.00 0.00 0.00 91 1014.5
20260903125232 57 117 0.0 2.0 0.00 0.00 0.00 91 1014.5
20260903125130 57 117 0.0 2.0 0.00 0.00 0.00 91 1014.5
20260903125023 57 113 0.0 2.0 0.00 0.00 0.00 91 1014.5
20260903124924 57 113 0.0 2.0 0.00 0.00 0.00 91 1014.5
20260903124823 57 113 1.0 3.0 0.00 0.00 0.00 91 1014.5
20260903124724 57 113 1.0 3.0 0.00 0.00 0.00 91 1014.5
20260903124700 57 113 1.0 3.0 0.00 0.00 0.00 91 1014.6
20260903124624 57 113 1.0 3.0 0.00 0.00 0.00 90 1014.6
20260903124520 57 158 0.0 3.0 0.00 0.00 0.00 90 1014.5
20260903124417 57 139 0.0 3.0 0.00 0.00 0.00 90 1014.5
20260903124317 57 176 0.0 3.0 0.00 0.00 0.00 90 1014.5
20260903124218 57 176 0.0 3.0 0.00 0.00 0.00 90 1014.5
20260903124200 57 176 0.0 3.0 0.00 0.00 0.00 90 1014.5
20260903124118 57 158 0.0 3.0 0.00 0.00 0.00 90 1014.5
20260903124014 57 158 0.0 3.0 0.00 0.00 0.00 91 1014.5
20260903123914 57 158 0.0 3.0 0.00 0.00 0.00 91 1014.5
20260903123814 57 102 0.0 3.0 0.00 0.00 0.00 90 1014.5
20260903123713 57 160 0.0 3.0 0.00 0.00 0.00 90 1014.6
20260903123700 57 160 0.0 3.0 0.00 0.00 0.00 90 1014.6
20260903123615 57 160 0.0 3.0 0.00 0.00 0.00 90 1014.6
20260903123510 57 161 1.0 3.0 0.00 0.00 0.00 90 1014.5
20260903123409 57 161 1.0 3.0 0.00 0.00 0.00 90 1014.6
20260903123308 57 161 1.0 3.0 0.00 0.00 0.00 90 1014.6
20260903123210 57 104 1.0 3.0 0.00 0.00 0.00 90 1014.6
20260903123200 57 104 1.0 3.0 0.00 0.00 0.00 90 1014.6
20260903123106 57 141 1.0 3.0 0.00 0.00 0.00 90 1014.6
20260903123002 57 141 1.0 3.0 0.00 0.00 0.00 90 1014.5
20260903122900 57 145 1.0 3.0 0.00 0.00 0.00 90 1014.5
20260903122800 57 120 1.0 3.0 0.00 0.00 0.00 90 1014.6
20260903122702 57 104 1.0 3.0 0.00 0.00 0.00 90 1014.6
20260903122559 57 114 1.0 3.0 0.00 0.00 0.00 90 1014.6
20260903122455 57 104 1.0 3.0 0.00 0.00 0.00 90 1014.6
20260903122356 57 105 1.0 3.0 0.00 0.00 0.00 90 1014.5
20260903122256 57 99 1.0 3.0 0.00 0.00 0.00 90 1014.6
20260903122157 57 99 1.0 3.0 0.00 0.00 0.00 90 1014.6
20260903122054 57 99 1.0 3.0 0.00 0.00 0.00 90 1014.5
20260903121950 57 113 1.0 3.0 0.00 0.00 0.00 90 1014.5
20260903121930 57 61 1.0 2.0 0.00 0.00 0.00 90 1014.6
20260903121848 57 71 1.0 2.0 0.00 0.00 0.00 90 1014.6
20260903121818 57 105 1.0 2.0 0.00 0.00 0.00 90 1014.6
20260903121646 57 97 1.0 2.0 0.00 0.00 0.00 90 1014.6
20260903121546 57 110 1.0 2.0 0.00 0.00 0.00 90 1014.6
20260903121442 57 97 1.0 2.0 0.00 0.00 0.00 90 1014.6
20260903121343 57 117 1.0 2.0 0.00 0.00 0.00 90 1014.6
20260903121241 57 108 1.0 2.0 0.00 0.00 0.00 90 1014.6
20260903121151 57 105 1.0 2.0 0.00 0.00 0.00 90 1014.6
20260903121142 57 107 1.0 2.0 0.00 0.00 0.00 90 1014.6
20260903121042 57 107 1.0 2.0 0.00 0.00 0.00 90 1014.6
20260903120941 57 108 1.0 2.0 0.00 0.00 0.00 90 1014.6
20260903120842 57 92 1.0 2.0 0.00 0.00 0.00 90 1014.6
20260903120742 57 108 1.0 3.0 0.00 0.00 0.00 90 1014.6
20260903120643 57 117 1.0 3.0 0.00 0.00 0.00 90 1014.6
20260903120542 57 114 1.0 3.0 0.00 0.00 0.00 90 1014.6
20260903120442 57 114 1.0 3.0 0.00 0.00 0.00 90 1014.6
20260903120342 57 115 1.0 3.0 0.00 0.00 0.00 90 1014.6
20260903120242 57 114 1.0 4.0 0.00 0.00 0.00 90 1014.6
20260903120142 57 102 1.0 4.0 0.00 0.00 0.00 90 1014.6
20260903120042 57 105 1.0 4.0 0.00 0.00 0.00 90 1014.6
20260903115942 57 115 1.0 4.0 0.00 0.00 0.00 90 1014.6
20260903115907 57 98 1.0 4.0 0.00 0.00 0.00 90 1014.7
20260903115841 57 115 1.0 4.0 0.00 0.00 0.00 90 1014.6
20260903115758 57 117 1.0 4.0 0.00 0.00 0.00 90 1014.7
20260903115642 57 107 1.0 4.0 0.00 0.00 0.00 90 1014.7
20260903115538 57 98 1.0 4.0 0.00 0.00 0.00 90 1014.7
20260903115438 57 121 1.0 4.0 0.00 0.00 0.00 90 1014.7
20260903115408 57 108 0.0 2.0 0.00 0.00 0.00 90 1014.7
20260903115339 57 105 1.0 4.0 0.00 0.00 0.00 90 1014.7
20260903115258 57 117 1.0 2.0 0.00 0.00 0.00 90 1014.7
20260903115137 57 109 0.0 2.0 0.00 0.00 0.00 90 1014.7
20260903115039 57 107 0.0 2.0 0.00 0.00 0.00 90 1014.7
20260903114937 57 107 1.0 3.0 0.00 0.00 0.00 90 1014.8
20260903114839 57 107 1.0 3.0 0.00 0.00 0.00 90 1014.7
20260903114740 57 107 1.0 3.0 0.00 0.00 0.00 90 1014.7
20260903114640 57 108 1.0 3.0 0.00 0.00 0.00 90 1014.7
20260903114538 57 107 1.0 3.0 0.00 0.00 0.00 89 1014.8
20260903114437 57 108 1.0 3.0 0.00 0.00 0.00 89 1014.7
20260903114338 57 108 1.0 3.0 0.00 0.00 0.00 90 1014.8
20260903114238 57 107 1.0 3.0 0.00 0.00 0.00 89 1014.8
20260903114147 57 107 1.0 3.0 0.00 0.00 0.00 89 1014.8
20260903114138 57 108 1.0 3.0 0.00 0.00 0.00 89 1014.8
20260903114039 57 107 2.0 3.0 0.00 0.00 0.00 89 1014.8
20260903113938 57 111 2.0 3.0 0.00 0.00 0.00 89 1014.8
20260903113838 57 111 2.0 3.0 0.00 0.00 0.00 89 1014.8
20260903113739 57 112 2.0 3.0 0.00 0.00 0.00 89 1014.8
20260903113647 57 107 2.0 3.0 0.00 0.00 0.00 89 1014.9
20260903113638 57 91 2.0 3.0 0.00 0.00 0.00 89 1014.9
20260903113534 57 118 2.0 3.0 0.00 0.00 0.00 89 1014.8
20260903113435 57 109 2.0 3.0 0.00 0.00 0.00 89 1014.8
20260903113334 57 117 1.0 3.0 0.00 0.00 0.00 89 1014.8
20260903113234 57 94 1.0 3.0 0.00 0.00 0.00 89 1014.9
20260903113148 58 110 1.0 3.0 0.00 0.00 0.00 89 1014.8
20260903113134 58 109 1.0 3.0 0.00 0.00 0.00 89 1014.8
20260903113035 58 103 1.0 3.0 0.00 0.00 0.00 89 1014.9
20260903112934 58 107 1.0 3.0 0.00 0.00 0.00 89 1014.9
20260903112834 58 100 1.0 3.0 0.00 0.00 0.00 89 1014.8
20260903112734 58 103 0.0 2.0 0.00 0.00 0.00 89 1014.9
20260903112647 58 117 0.0 2.0 0.00 0.00 0.00 89 1014.8
20260903112638 58 108 0.0 2.0 0.00 0.00 0.00 89 1014.8
20260903112534 58 102 0.0 2.0 0.00 0.00 0.00 89 1014.9
20260903112434 58 101 0.0 2.0 0.00 0.00 0.00 89 1014.8
20260903112334 58 102 0.0 2.0 0.00 0.00 0.00 89 1014.8
20260903112234 58 102 0.0 2.0 0.00 0.00 0.00 89 1014.8
20260903112147 58 102 0.0 2.0 0.00 0.00 0.00 89 1014.8
20260903112134 58 101 0.0 2.0 0.00 0.00 0.00 89 1014.8
20260903112034 58 100 0.0 2.0 0.00 0.00 0.00 89 1014.8
20260903111934 58 132 0.0 2.0 0.00 0.00 0.00 89 1014.8
20260903111834 58 133 0.0 2.0 0.00 0.00 0.00 89 1014.8
20260903111731 58 132 0.0 2.0 0.00 0.00 0.00 89 1014.9
20260903111647 58 132 0.0 2.0 0.00 0.00 0.00 89 1014.9
20260903111630 58 133 0.0 2.0 0.00 0.00 0.00 89 1014.9
20260903111529 58 133 0.0 2.0 0.00 0.00 0.00 89 1014.9
20260903111430 58 132 1.0 2.0 0.00 0.00 0.00 89 1014.9
20260903111329 58 133 1.0 2.0 0.00 0.00 0.00 89 1014.9
20260903111230 58 132 1.0 2.0 0.00 0.00 0.00 89 1015.0
20260903111147 58 149 0.0 2.0 0.00 0.00 0.00 89 1015.0
20260903111131 58 150 0.0 2.0 0.00 0.00 0.00 89 1015.0
20260903111030 58 124 0.0 2.0 0.00 0.00 0.00 89 1014.9
20260903110930 58 140 0.0 2.0 0.00 0.00 0.00 89 1015.0
20260903110830 58 141 1.0 2.0 0.00 0.00 0.00 89 1015.0
20260903110730 58 141 1.0 2.0 0.00 0.00 0.00 89 1015.0
20260903110630 58 141 1.0 2.0 0.00 0.00 0.00 89 1015.0
20260903110529 58 141 1.0 2.0 0.00 0.00 0.00 88 1014.9
20260903110430 58 141 1.0 2.0 0.00 0.00 0.00 88 1015.0
20260903110330 58 148 0.0 2.0 0.00 0.00 0.00 88 1015.0
20260903110229 58 150 0.0 2.0 0.00 0.00 0.00 88 1015.0
20260903110131 58 150 1.0 2.0 0.00 0.00 0.00 88 1015.0
20260903110030 58 136 1.0 2.0 0.00 0.00 0.00 88 1015.0
20260903105930 58 124 0.0 2.0 0.00 0.00 0.00 88 1015.0
20260903105827 58 124 0.0 2.0 0.00 0.00 0.00 88 1015.0
20260903105726 58 124 0.0 2.0 0.00 0.00 0.00 88 1015.1
20260903105647 58 124 0.0 2.0 0.00 0.00 0.00 88 1015.1
20260903105626 58 118 0.0 2.0 0.00 0.00 0.00 88 1015.1
20260903105526 58 117 0.0 2.0 0.00 0.00 0.00 88 1015.0
20260903105425 58 117 0.0 2.0 0.00 0.00 0.00 88 1015.0
20260903105324 58 117 0.0 2.0 0.00 0.00 0.00 88 1015.0
20260903105224 58 117 1.0 2.0 0.00 0.00 0.00 88 1015.0
20260903105125 58 117 1.0 2.0 0.00 0.00 0.00 88 1015.0
20260903105022 58 139 1.0 2.0 0.00 0.00 0.00 88 1015.0
20260903104923 58 139 1.0 2.0 0.00 0.00 0.00 88 1015.0
20260903104822 58 139 1.0 2.0 0.00 0.00 0.00 88 1015.0
20260903104723 58 139 1.0 2.0 0.00 0.00 0.00 88 1014.9
20260903104623 58 139 1.0 2.0 0.00 0.00 0.00 88 1015.0
20260903104522 58 139 1.0 2.0 0.00 0.00 0.00 88 1015.0
20260903104422 58 139 1.0 2.0 0.00 0.00 0.00 88 1015.0
20260903104322 58 139 1.0 2.0 0.00 0.00 0.00 88 1015.0
20260903104219 58 141 1.0 2.0 0.00 0.00 0.00 88 1015.0
20260903104118 58 141 1.0 2.0 0.00 0.00 0.00 88 1015.0
20260903104018 58 143 1.0 2.0 0.00 0.00 0.00 87 1015.1
20260903103917 58 121 1.0 2.0 0.00 0.00 0.00 88 1015.1
20260903103904 58 110 1.0 2.0 0.00 0.00 0.00 88 1015.0
20260903103816 58 110 1.0 2.0 0.00 0.00 0.00 87 1015.1
20260903103753 58 110 1.0 2.0 0.00 0.00 0.00 87 1015.0
20260903103614 58 110 1.0 2.0 0.00 0.00 0.00 88 1015.1
20260903103512 59 108 1.0 2.0 0.00 0.00 0.00 87 1015.0
20260903103412 59 108 1.0 2.0 0.00 0.00 0.00 88 1015.1
20260903103312 59 108 0.0 2.0 0.00 0.00 0.00 88 1015.0
20260903103212 59 110 0.0 2.0 0.00 0.00 0.00 88 1015.1
20260903103143 59 110 0.0 2.0 0.00 0.00 0.00 88 1015.1
20260903103133 59 132 0.0 1.0 0.00 0.00 0.00 88 1015.0
20260903103113 59 110 0.0 2.0 0.00 0.00 0.00 88 1015.0
20260903103017 59 111 0.0 2.0 0.00 0.00 0.00 88 1015.0
20260903102904 59 132 0.0 1.0 0.00 0.00 0.00 88 1015.1
20260903102801 59 132 0.0 1.0 0.00 0.00 0.00 88 1015.0
20260903102751 59 132 0.0 1.0 0.00 0.00 0.00 88 1015.0
20260903102556 58 132 0.0 1.0 0.00 0.00 0.00 88 1015.0
20260903102457 59 132 0.0 1.0 0.00 0.00 0.00 87 1015.0
20260903102404 59 132 0.0 2.0 0.00 0.00 0.00 87 1015.0
20260903102356 59 132 0.0 1.0 0.00 0.00 0.00 87 1015.0
20260903102255 59 132 0.0 1.0 0.00 0.00 0.00 87 1015.0
20260903102151 59 133 0.0 2.0 0.00 0.00 0.00 87 1015.0
20260903102049 59 132 0.0 2.0 0.00 0.00 0.00 87 1015.0
20260903101946 59 133 0.0 2.0 0.00 0.00 0.00 87 1015.0
20260903101847 59 132 0.0 2.0 0.00 0.00 0.00 87 1015.0
20260903101743 59 139 0.0 2.0 0.00 0.00 0.00 87 1015.0
20260903101645 59 104 0.0 2.0 0.00 0.00 0.00 87 1014.9
20260903101540 59 104 0.0 2.0 0.00 0.00 0.00 87 1015.0
20260903101441 59 104 0.0 2.0 0.00 0.00 0.00 87 1014.9
20260903101339 59 104 0.0 2.0 0.00 0.00 0.00 87 1014.9
20260903101238 59 104 0.0 2.0 0.00 0.00 0.00 87 1014.9
20260903101138 59 132 0.0 1.0 0.00 0.00 0.00 87 1014.9
20260903101033 59 132 0.0 1.0 0.00 0.00 0.00 87 1014.9
20260903100931 59 133 0.0 1.0 0.00 0.00 0.00 87 1014.9
20260903100832 59 132 0.0 1.0 0.00 0.00 0.00 87 1014.9
20260903100732 59 133 0.0 1.0 0.00 0.00 0.00 87 1014.9
20260903100634 59 132 0.0 1.0 0.00 0.00 0.00 87 1014.9
20260903100524 59 132 0.0 1.0 0.00 0.00 0.00 87 1014.9
20260903100424 59 132 0.0 1.0 0.00 0.00 0.00 87 1014.9
20260903100324 59 133 0.0 1.0 0.00 0.00 0.00 87 1014.9
20260903100224 59 133 0.0 2.0 0.00 0.00 0.00 87 1014.9
20260903100126 59 133 0.0 2.0 0.00 0.00 0.00 87 1014.9
20260903100020 59 133 0.0 2.0 0.00 0.00 0.00 87 1014.9
20260903095919 59 132 0.0 2.0 0.00 0.00 0.00 87 1014.9
20260903095837 59 132 0.0 2.0 0.00 0.00 0.00 87 1014.9
20260903095819 59 133 0.0 2.0 0.00 0.00 0.00 87 1014.9
20260903095736 59 133 0.0 2.0 0.00 0.00 0.00 87 1014.9
20260903095723 59 132 0.0 2.0 0.00 0.00 0.00 87 1014.9
20260903095516 59 132 1.0 2.0 0.00 0.00 0.00 87 1014.9
20260903095414 59 132 1.0 2.0 0.00 0.00 0.00 87 1014.9
20260903095312 59 132 0.0 2.0 0.00 0.00 0.00 87 1014.9
20260903095212 59 120 0.0 2.0 0.00 0.00 0.00 87 1014.8
20260903095114 59 138 0.0 2.0 0.00 0.00 0.00 87 1014.9
20260903095008 59 138 0.0 2.0 0.00 0.00 0.00 87 1014.9
20260903094908 59 147 0.0 2.0 0.00 0.00 0.00 87 1014.9
20260903094808 59 146 0.0 2.0 0.00 0.00 0.00 87 1014.9
20260903094707 59 146 0.0 2.0 0.00 0.00 0.00 87 1014.9
20260903094604 59 146 0.0 2.0 0.00 0.00 0.00 87 1015.0
20260903094500 59 135 0.0 1.0 0.00 0.00 0.00 87 1014.9
20260903094358 59 135 0.0 1.0 0.00 0.00 0.00 87 1015.0
20260903094317 59 133 0.0 3.0 0.00 0.00 0.00 87 1015.0
20260903094258 59 136 0.0 1.0 0.00 0.00 0.00 87 1015.0
20260903094213 59 132 0.0 1.0 0.00 0.00 0.00 87 1015.0
20260903094203 59 133 0.0 3.0 0.00 0.00 0.00 87 1015.0
20260903093957 59 131 1.0 3.0 0.00 0.00 0.00 87 1015.0
20260903093855 59 131 1.0 3.0 0.00 0.00 0.00 87 1015.1
20260903093815 59 134 1.0 3.0 0.00 0.00 0.00 87 1015.0
20260903093755 59 131 1.0 3.0 0.00 0.00 0.00 87 1015.0
20260903093711 59 131 1.0 3.0 0.00 0.00 0.00 87 1015.0
20260903093657 59 134 1.0 3.0 0.00 0.00 0.00 87 1015.0
20260903093448 59 134 1.0 4.0 0.00 0.00 0.00 87 1015.0
20260903093345 59 142 1.0 4.0 0.00 0.00 0.00 87 1015.0
20260903093246 59 143 1.0 4.0 0.00 0.00 0.00 87 1015.0
20260903093146 59 219 1.0 4.0 0.00 0.00 0.00 87 1015.0
20260903093046 59 208 1.0 4.0 0.00 0.00 0.00 87 1015.0
20260903092946 59 203 1.0 4.0 0.00 0.00 0.00 87 1015.0
20260903092845 59 167 1.0 4.0 0.00 0.00 0.00 87 1015.0
20260903092744 59 180 1.0 4.0 0.00 0.00 0.00 87 1015.1
20260903092642 59 229 1.0 4.0 0.00 0.00 0.00 87 1015.1
20260903092540 59 215 1.0 3.0 0.00 0.00 0.00 87 1015.1
20260903092436 59 221 1.0 4.0 0.00 0.00 0.00 87 1015.1
20260903092334 59 221 1.0 4.0 0.00 0.00 0.00 87 1015.1
20260903092233 59 226 1.0 4.0 0.00 0.00 0.00 87 1015.2
20260903092135 59 226 1.0 4.0 0.00 0.00 0.00 87 1015.2
20260903092034 59 218 1.0 4.0 0.00 0.00 0.00 87 1015.1
20260903091930 59 219 1.0 4.0 0.00 0.00 0.00 87 1015.2
20260903091828 59 219 1.0 4.0 0.00 0.00 0.00 87 1015.2
20260903091727 59 217 1.0 4.0 0.00 0.00 0.00 87 1015.2
20260903091628 59 216 1.0 4.0 0.00 0.00 0.00 87 1015.2
20260903091541 59 217 1.0 4.0 0.00 0.00 0.00 87 1015.2
20260903091428 59 223 0.0 2.0 0.00 0.00 0.00 87 1015.2
20260903091326 59 224 0.0 2.0 0.00 0.00 0.00 87 1015.3
20260903091226 59 136 0.0 1.0 0.00 0.00 0.00 86 1015.3
20260903091125 59 136 0.0 1.0 0.00 0.00 0.00 86 1015.3
20260903091022 59 136 0.0 1.0 0.00 0.00 0.00 86 1015.3
20260903090916 59 136 0.0 1.0 0.00 0.00 0.00 86 1015.3
20260903090817 59 136 0.0 2.0 0.00 0.00 0.00 86 1015.3
20260903090716 59 136 0.0 2.0 0.00 0.00 0.00 86 1015.3
20260903090617 59 136 0.0 2.0 0.00 0.00 0.00 86 1015.3
20260903090531 59 136 0.0 2.0 0.00 0.00 0.00 86 1015.3
20260903090409 59 135 1.0 2.0 0.00 0.00 0.00 86 1015.3
20260903090310 59 136 1.0 3.0 0.00 0.00 0.00 86 1015.3
20260903090210 60 136 1.0 4.0 0.00 0.00 0.00 86 1015.3
20260903090113 60 135 1.0 4.0 0.00 0.00 0.00 86 1015.3
20260903090015 60 136 1.0 4.0 0.00 0.00 0.00 86 1015.3
20260903090010 60 135 1.0 4.0 0.00 0.00 0.00 86 1015.3
20260903085908 60 136 2.0 4.0 0.00 0.00 0.00 86 1015.3
20260903085829 60 129 1.0 4.0 0.00 0.00 0.00 85 1015.3
20260903085808 60 174 1.0 4.0 0.00 0.00 0.00 85 1015.3
20260903085739 60 129 1.0 4.0 0.00 0.00 0.00 85 1015.3
20260903085735 60 136 1.0 4.0 0.00 0.00 0.00 85 1015.3
20260903085724 60 129 1.0 4.0 0.00 0.00 0.00 85 1015.3
20260903085358 60 121 1.0 4.0 0.00 0.00 0.00 85 1015.3
20260903085258 60 148 1.0 4.0 0.00 0.00 0.00 85 1015.4
20260903085158 60 114 1.0 3.0 0.00 0.00 0.00 85 1015.4
20260903085058 60 132 1.0 3.0 0.00 0.00 0.00 85 1015.4
20260903085009 60 150 1.0 2.0 0.00 0.00 0.00 85 1015.3
20260903084957 60 146 1.0 2.0 0.00 0.00 0.00 85 1015.3
20260903084856 60 143 1.0 3.0 0.00 0.00 0.00 85 1015.4
20260903084757 60 205 1.0 3.0 0.00 0.00 0.00 85 1015.3
20260903084657 60 205 1.0 3.0 0.00 0.00 0.00 85 1015.4
20260903084601 60 205 1.0 3.0 0.00 0.00 0.00 85 1015.4
20260903084509 60 206 1.0 3.0 0.00 0.00 0.00 85 1015.4
20260903084452 60 206 1.0 3.0 0.00 0.00 0.00 85 1015.4
20260903084353 60 205 1.0 3.0 0.00 0.00 0.00 85 1015.4
20260903084300 60 193 1.0 3.0 0.00 0.00 0.00 85 1015.3
20260903084258 60 205 1.0 3.0 0.00 0.00 0.00 85 1015.4
20260903084221 60 193 1.0 3.0 0.00 0.00 0.00 85 1015.3
20260903084008 60 193 1.0 3.0 0.00 0.00 0.00 85 1015.3
20260903083943 60 194 1.0 3.0 0.00 0.00 0.00 85 1015.3
20260903083841 60 193 1.0 3.0 0.00 0.00 0.00 84 1015.3
20260903083743 60 176 1.0 3.0 0.00 0.00 0.00 84 1015.4
20260903083735 60 211 1.0 3.0 0.00 0.00 0.00 84 1015.3
20260903083641 60 148 1.0 3.0 0.00 0.00 0.00 84 1015.3
20260903083539 60 195 1.0 3.0 0.00 0.00 0.00 84 1015.4
20260903083437 60 226 1.0 3.0 0.00 0.00 0.00 84 1015.3
20260903083334 60 224 1.0 5.0 0.00 0.00 0.00 84 1015.4
20260903083240 60 216 2.0 5.0 0.00 0.00 0.00 84 1015.4
20260903083234 60 239 2.0 5.0 0.00 0.00 0.00 84 1015.4
20260903083134 60 215 2.0 5.0 0.00 0.00 0.00 84 1015.4
20260903083120 60 215 2.0 5.0 0.00 0.00 0.00 84 1015.3
20260903082929 60 221 2.0 5.0 0.00 0.00 0.00 84 1015.4
20260903082824 60 170 2.0 5.0 0.00 0.00 0.00 84 1015.4
20260903082724 60 138 2.0 5.0 0.00 0.00 0.00 84 1015.4
20260903082634 60 232 2.0 5.0 0.00 0.00 0.00 84 1015.4
20260903082607 60 224 1.0 6.0 0.00 0.00 0.00 84 1015.4
20260903082522 60 228 2.0 5.0 0.00 0.00 0.00 84 1015.4
20260903082509 60 226 2.0 5.0 0.00 0.00 0.00 84 1015.4
20260903082454 60 229 2.0 6.0 0.00 0.00 0.00 84 1015.4
20260903082320 60 222 1.0 6.0 0.00 0.00 0.00 84 1015.4
20260903082247 60 211 1.0 6.0 0.00 0.00 0.00 84 1015.4
20260903082240 60 236 1.0 6.0 0.00 0.00 0.00 84 1015.4
20260903082232 60 224 1.0 6.0 0.00 0.00 0.00 84 1015.4
20260903082224 60 224 1.0 6.0 0.00 0.00 0.00 84 1015.4
20260903081914 60 207 1.0 6.0 0.00 0.00 0.00 84 1015.4
20260903081808 61 250 1.0 6.0 0.00 0.00 0.00 84 1015.4
20260903081708 60 217 1.0 6.0 0.00 0.00 0.00 84 1015.4
20260903081612 61 217 1.0 6.0 0.00 0.00 0.00 84 1015.4
20260903081522 60 211 1.0 6.0 0.00 0.00 0.00 84 1015.4
20260903081508 60 219 1.0 6.0 0.00 0.00 0.00 84 1015.4
20260903081407 61 186 2.0 3.0 0.00 0.00 0.00 84 1015.4
20260903081304 61 186 2.0 4.0 0.00 0.00 0.00 84 1015.4
20260903081203 61 186 2.0 4.0 0.00 0.00 0.00 84 1015.4
20260903081104 61 186 2.0 5.0 0.00 0.00 0.00 84 1015.4
20260903081008 61 235 2.0 5.0 0.00 0.00 0.00 84 1015.3
20260903081002 61 235 2.0 5.0 0.00 0.00 0.00 84 1015.3
20260903080859 61 193 2.0 5.0 0.00 0.00 0.00 84 1015.3
20260903080757 61 208 2.0 5.0 0.00 0.00 0.00 84 1015.4
20260903080658 61 212 2.0 5.0 0.00 0.00 0.00 84 1015.3
20260903080559 61 196 2.0 5.0 0.00 0.00 0.00 84 1015.3
20260903080509 61 195 2.0 5.0 0.00 0.00 0.00 84 1015.3
20260903080458 61 195 2.0 5.0 0.00 0.00 0.00 84 1015.3
20260903080357 61 222 2.0 5.0 0.00 0.00 0.00 84 1015.3
20260903080256 61 200 2.0 5.0 0.00 0.00 0.00 84 1015.2
20260903080157 61 239 2.0 5.0 0.00 0.00 0.00 84 1015.2
20260903080056 61 166 2.0 5.0 0.00 0.00 0.00 84 1015.3
20260903080009 61 165 2.0 5.0 0.00 0.00 0.00 84 1015.3
20260903075956 61 203 2.0 5.0 0.00 0.00 0.00 84 1015.3
20260903075856 61 231 2.0 8.0 0.00 0.00 0.00 84 1015.2
20260903075754 61 191 2.0 8.0 0.00 0.00 0.00 84 1015.2
20260903075731 61 231 2.0 8.0 0.00 0.00 0.00 84 1015.2
20260903075654 61 200 2.0 8.0 0.00 0.00 0.00 84 1015.2
20260903075620 61 230 2.0 8.0 0.00 0.00 0.00 84 1015.2
20260903075452 61 203 2.0 8.0 0.00 0.00 0.00 84 1015.2
20260903075349 61 232 2.0 8.0 0.00 0.00 0.00 84 1015.2
20260903075250 61 232 2.0 8.0 0.00 0.00 0.00 83 1015.2
20260903075230 61 214 2.0 8.0 0.00 0.00 0.00 83 1015.2
20260903075146 61 217 2.0 8.0 0.00 0.00 0.00 84 1015.2
20260903075121 61 191 2.0 8.0 0.00 0.00 0.00 84 1015.2
20260903074942 61 236 2.0 8.0 0.00 0.00 0.00 83 1015.2
20260903074842 61 198 1.0 6.0 0.00 0.00 0.00 83 1015.2
20260903074740 61 174 1.0 6.0 0.00 0.00 0.00 83 1015.3
20260903074640 61 204 1.0 6.0 0.00 0.00 0.00 83 1015.3
20260903074540 61 230 1.0 6.0 0.00 0.00 0.00 83 1015.2
20260903074502 61 217 1.0 6.0 0.00 0.00 0.00 83 1015.3
20260903074440 61 215 1.0 5.0 0.00 0.00 0.00 83 1015.3
20260903074340 61 257 1.0 5.0 0.00 0.00 0.00 83 1015.2
20260903074239 61 161 1.0 6.0 0.00 0.00 0.00 83 1015.2
20260903074140 61 223 2.0 6.0 0.00 0.00 0.00 83 1015.2
20260903074039 61 163 2.0 6.0 0.00 0.00 0.00 83 1015.2
20260903073955 61 182 2.0 6.0 0.00 0.00 0.00 83 1015.2
20260903073938 61 231 2.0 6.0 0.00 0.00 0.00 83 1015.2
20260903073838 61 210 2.0 6.0 0.00 0.00 0.00 83 1015.3
20260903073736 61 210 2.0 6.0 0.00 0.00 0.00 83 1015.3
20260903073633 61 210 2.0 6.0 0.00 0.00 0.00 83 1015.3
20260903073530 61 203 2.0 6.0 0.00 0.00 0.00 83 1015.3
20260903073448 61 114 3.0 6.0 0.00 0.00 0.00 83 1015.3
20260903073428 61 226 3.0 6.0 0.00 0.00 0.00 83 1015.3
20260903073328 61 214 3.0 6.0 0.00 0.00 0.00 83 1015.2
20260903073229 61 228 2.0 6.0 0.00 0.00 0.00 83 1015.2
20260903073127 61 238 2.0 6.0 0.00 0.00 0.00 82 1015.3
20260903073024 61 226 2.0 6.0 0.00 0.00 0.00 82 1015.2
20260903072942 61 229 2.0 6.0 0.00 0.00 0.00 82 1015.2
20260903072922 61 225 2.0 6.0 0.00 0.00 0.00 82 1015.2
20260903072821 61 251 3.0 6.0 0.00 0.00 0.00 82 1015.2
20260903072722 61 231 3.0 7.0 0.00 0.00 0.00 82 1015.2
20260903072622 61 253 3.0 7.0 0.00 0.00 0.00 82 1015.2
20260903072516 62 212 3.0 7.0 0.00 0.00 0.00 82 1015.1
20260903072436 62 212 3.0 7.0 0.00 0.00 0.00 82 1015.2
20260903072416 62 216 3.0 7.0 0.00 0.00 0.00 82 1015.1
20260903072316 62 243 3.0 7.0 0.00 0.00 0.00 82 1015.1
20260903072216 62 250 4.0 8.0 0.00 0.00 0.00 82 1015.1
20260903072116 62 305 4.0 10.0 0.00 0.00 0.00 82 1015.1
20260903072012 62 241 4.0 10.0 0.00 0.00 0.00 82 1015.1
20260903071935 62 200 4.0 10.0 0.00 0.00 0.00 82 1015.1
20260903071912 62 256 5.0 10.0 0.00 0.00 0.00 82 1015.1
20260903071812 62 200 5.0 10.0 0.00 0.00 0.00 82 1015.2
20260903071712 62 229 5.0 10.0 0.00 0.00 0.00 82 1015.1
20260903071615 62 204 4.0 10.0 0.00 0.00 0.00 82 1015.1
20260903071506 62 226 4.0 10.0 0.00 0.00 0.00 82 1015.1
20260903071434 62 212 4.0 10.0 0.00 0.00 0.00 82 1015.1
20260903071405 62 248 4.0 10.0 0.00 0.00 0.00 82 1015.1
20260903071306 62 240 4.0 10.0 0.00 0.00 0.00 82 1015.1
20260903071206 62 237 4.0 10.0 0.00 0.00 0.00 82 1015.1
20260903071109 62 248 4.0 10.0 0.00 0.00 0.00 82 1015.2
20260903071006 62 238 4.0 9.0 0.00 0.00 0.00 81 1015.2
20260903070935 62 229 4.0 9.0 0.00 0.00 0.00 81 1015.2
20260903070906 62 195 4.0 9.0 0.00 0.00 0.00 81 1015.2
20260903070806 62 248 4.0 9.0 0.00 0.00 0.00 81 1015.2
20260903070704 62 232 4.0 8.0 0.00 0.00 0.00 81 1015.2
20260903070614 62 211 4.0 8.0 0.00 0.00 0.00 81 1015.2
20260903070504 62 240 4.0 8.0 0.00 0.00 0.00 81 1015.2
20260903070434 62 210 4.0 8.0 0.00 0.00 0.00 81 1015.2
20260903070405 62 242 4.0 8.0 0.00 0.00 0.00 81 1015.2
20260903070304 62 218 4.0 8.0 0.00 0.00 0.00 81 1015.2
20260903070203 62 253 4.0 8.0 0.00 0.00 0.00 81 1015.2
20260903070100 62 211 4.0 8.0 0.00 0.00 0.00 81 1015.2
20260903070000 62 248 4.0 8.0 0.00 0.00 0.00 81 1015.1
20260903065935 62 195 4.0 8.0 0.00 0.00 0.00 81 1015.1
20260903065900 62 256 4.0 8.0 0.00 0.00 0.00 81 1015.1
20260903065800 62 221 4.0 8.0 0.00 0.00 0.00 81 1015.2
20260903065700 62 205 4.0 8.0 0.00 0.00 0.00 81 1015.1
20260903065558 62 165 4.0 8.0 0.00 0.00 0.00 80 1015.0
20260903065457 62 219 4.0 7.0 0.00 0.00 0.00 80 1015.1
20260903065434 62 246 4.0 6.0 0.00 0.00 0.00 80 1015.1
20260903065356 62 208 4.0 6.0 0.00 0.00 0.00 80 1015.1
20260903065254 62 233 4.0 6.0 0.00 0.00 0.00 80 1015.1
20260903065155 62 219 4.0 6.0 0.00 0.00 0.00 80 1015.1
20260903065054 62 231 3.0 6.0 0.00 0.00 0.00 80 1015.1
20260903064954 62 219 3.0 6.0 0.00 0.00 0.00 80 1015.1
20260903064933 62 212 3.0 6.0 0.00 0.00 0.00 80 1015.1
20260903064855 62 235 3.0 6.0 0.00 0.00 0.00 80 1015.1
20260903064754 62 200 3.0 6.0 0.00 0.00 0.00 79 1015.1
20260903064700 62 214 3.0 8.0 0.00 0.00 0.00 79 1015.0
20260903064654 62 262 3.0 8.0 0.00 0.00 0.00 79 1015.0
20260903064553 62 211 3.0 8.0 0.00 0.00 0.00 79 1015.1
20260903064544 62 229 3.0 8.0 0.00 0.00 0.00 79 1015.0
20260903064354 62 248 3.0 8.0 0.00 0.00 0.00 79 1015.1
20260903064254 62 256 3.0 8.0 0.00 0.00 0.00 79 1015.0
20260903064154 62 232 3.0 8.0 0.00 0.00 0.00 79 1015.1
20260903064048 62 231 3.0 8.0 0.00 0.00 0.00 79 1015.0
20260903063949 63 219 3.0 8.0 0.00 0.00 0.00 78 1015.0
20260903063933 63 226 3.0 8.0 0.00 0.00 0.00 78 1015.0
20260903063848 63 193 3.0 8.0 0.00 0.00 0.00 78 1015.0
20260903063748 63 235 3.0 8.0 0.00 0.00 0.00 78 1015.0
20260903063648 63 204 3.0 7.0 0.00 0.00 0.00 78 1015.0
20260903063548 63 228 3.0 7.0 0.00 0.00 0.00 78 1015.1
20260903063448 63 236 3.0 7.0 0.00 0.00 0.00 78 1015.1
20260903063433 63 235 3.0 7.0 0.00 0.00 0.00 78 1015.1
20260903063347 63 240 3.0 7.0 0.00 0.00 0.00 78 1015.0
20260903063248 63 251 3.0 7.0 0.00 0.00 0.00 78 1015.0
20260903063148 63 269 3.0 7.0 0.00 0.00 0.00 78 1015.0
20260903063047 63 245 3.0 7.0 0.00 0.00 0.00 78 1015.1
20260903062948 63 224 3.0 7.0 0.00 0.00 0.00 78 1015.0
20260903062933 63 211 3.0 7.0 0.00 0.00 0.00 78 1015.0
20260903062844 63 234 3.0 7.0 0.00 0.00 0.00 78 1015.0
20260903062745 63 233 3.0 7.0 0.00 0.00 0.00 77 1015.0
20260903062645 63 229 3.0 7.0 0.00 0.00 0.00 77 1015.0
20260903062544 63 235 3.0 7.0 0.00 0.00 0.00 77 1015.0
20260903062444 63 248 3.0 7.0 0.00 0.00 0.00 77 1015.0
20260903062433 63 222 3.0 7.0 0.00 0.00 0.00 77 1015.0
20260903062344 63 243 3.0 7.0 0.00 0.00 0.00 77 1015.0
20260903062244 63 240 3.0 7.0 0.00 0.00 0.00 77 1015.0
20260903062145 63 225 3.0 7.0 0.00 0.00 0.00 77 1015.0
20260903062044 63 226 3.0 7.0 0.00 0.00 0.00 77 1015.0
20260903061945 63 242 3.0 7.0 0.00 0.00 0.00 77 1015.0
20260903061929 63 226 3.0 7.0 0.00 0.00 0.00 77 1015.0
20260903061845 63 218 3.0 7.0 0.00 0.00 0.00 77 1015.0
20260903061744 63 231 3.0 7.0 0.00 0.00 0.00 77 1015.0
20260903061645 63 235 3.0 7.0 0.00 0.00 0.00 77 1015.0
20260903061544 63 235 3.0 7.0 0.00 0.00 0.00 77 1015.0
20260903061429 63 235 3.0 7.0 0.00 0.00 0.00 77 1015.0
20260903061345 63 236 3.0 7.0 0.00 0.00 0.00 77 1015.0
20260903061244 63 229 3.0 7.0 0.00 0.00 0.00 77 1015.0
20260903061145 63 256 3.0 6.0 0.00 0.00 0.00 77 1015.0
20260903061045 63 236 3.0 6.0 0.00 0.00 0.00 76 1015.0
20260903060944 63 231 3.0 6.0 0.00 0.00 0.00 76 1015.0
20260903060930 63 238 3.0 6.0 0.00 0.00 0.00 76 1015.0
20260903060844 63 236 3.0 6.0 0.00 0.00 0.00 76 1015.0
20260903060744 63 229 3.0 6.0 0.00 0.00 0.00 76 1015.0
20260903060645 63 235 2.0 6.0 0.00 0.00 0.00 76 1015.0
20260903060544 64 238 3.0 6.0 0.00 0.00 0.00 76 1015.0
20260903060442 64 246 3.0 6.0 0.00 0.00 0.00 76 1015.0
20260903060427 64 233 3.0 6.0 0.00 0.00 0.00 76 1015.0
20260903060342 64 235 2.0 6.0 0.00 0.00 0.00 76 1015.0
20260903060242 64 233 2.0 6.0 0.00 0.00 0.00 75 1015.0
20260903060143 64 233 2.0 6.0 0.00 0.00 0.00 75 1015.1
20260903060042 64 235 2.0 6.0 0.00 0.00 0.00 75 1015.0
20260903055927 64 238 2.0 6.0 0.00 0.00 0.00 75 1015.0
20260903055840 64 238 2.0 6.0 0.00 0.00 0.00 75 1015.1
20260903055740 64 166 2.0 6.0 0.00 0.00 0.00 75 1015.0
20260903055651 64 208 2.0 6.0 0.00 0.00 0.00 74 1015.0
20260903055640 64 229 2.0 6.0 0.00 0.00 0.00 75 1015.1
20260903055547 64 236 2.0 6.0 0.00 0.00 0.00 74 1015.1
20260903055538 64 203 2.0 6.0 0.00 0.00 0.00 74 1015.0
20260903055338 64 212 2.0 6.0 0.00 0.00 0.00 74 1015.1
20260903055238 64 232 2.0 6.0 0.00 0.00 0.00 74 1015.1
20260903055137 64 240 2.0 6.0 0.00 0.00 0.00 74 1015.0
20260903055036 64 232 2.0 6.0 0.00 0.00 0.00 74 1015.0
20260903054936 64 242 2.0 6.0 0.00 0.00 0.00 74 1015.0
20260903054925 64 236 2.0 6.0 0.00 0.00 0.00 74 1015.0
20260903054836 64 146 2.0 6.0 0.00 0.00 0.00 74 1015.0
20260903054737 64 231 2.0 8.0 0.00 0.00 0.00 74 1015.0
20260903054638 64 226 2.0 8.0 0.00 0.00 0.00 74 1015.0
20260903054536 64 237 2.0 8.0 0.00 0.00 0.00 73 1014.9
20260903054436 64 211 2.0 8.0 0.00 0.00 0.00 73 1015.0
20260903054426 64 203 2.0 8.0 0.00 0.00 0.00 73 1015.0
20260903054336 64 153 2.0 8.0 0.00 0.00 0.00 73 1015.0
20260903054237 64 256 2.0 8.0 0.00 0.00 0.00 73 1015.0
20260903054136 65 256 2.0 8.0 0.00 0.00 0.00 73 1015.0
20260903054036 65 263 2.0 8.0 0.00 0.00 0.00 73 1015.0
20260903054026 65 232 3.0 10.0 0.00 0.00 0.00 72 1015.0
20260903054020 65 234 3.0 9.0 0.00 0.00 0.00 72 1015.0
20260903054016 65 233 2.0 8.0 0.00 0.00 0.00 73 1015.0
20260903054006 65 229 2.0 8.0 0.00 0.00 0.00 73 1015.0
20260903053856 65 229 3.0 9.0 0.00 0.00 0.00 73 1015.0
20260903053743 65 210 3.0 9.0 0.00 0.00 0.00 72 1015.0
20260903053541 65 233 3.0 10.0 0.00 0.00 0.00 72 1015.0
20260903053532 65 233 3.0 10.0 0.00 0.00 0.00 72 1015.0
20260903053326 65 221 3.0 10.0 0.00 0.00 0.00 72 1015.0
20260903053226 65 239 3.0 10.0 0.00 0.00 0.00 72 1014.9
20260903053127 65 266 3.0 10.0 0.00 0.00 0.00 72 1014.9
20260903053026 65 223 3.0 10.0 0.00 0.00 0.00 71 1015.0
20260903052931 65 228 4.0 10.0 0.00 0.00 0.00 71 1015.0
20260903052920 65 225 4.0 10.0 0.00 0.00 0.00 71 1015.0
20260903052839 65 253 4.0 10.0 0.00 0.00 0.00 71 1014.9
20260903052835 65 218 4.0 10.0 0.00 0.00 0.00 71 1014.9
20260903052627 65 239 4.0 10.0 0.00 0.00 0.00 71 1015.0
20260903052526 65 222 3.0 10.0 0.00 0.00 0.00 71 1015.0
20260903052446 65 259 4.0 12.0 0.00 0.00 0.00 70 1015.0
20260903052432 65 263 4.0 12.0 0.00 0.00 0.00 71 1015.0
20260903052226 65 239 3.0 12.0 0.00 0.00 0.00 70 1015.0
20260903052135 65 288 4.0 12.0 0.00 0.00 0.00 70 1015.0
20260903052123 65 238 3.0 12.0 0.00 0.00 0.00 70 1015.0
20260903052022 65 246 4.0 12.0 0.00 0.00 0.00 70 1015.0
20260903051927 65 270 4.0 12.0 0.00 0.00 0.00 70 1015.0
20260903051820 65 250 3.0 12.0 0.00 0.00 0.00 70 1015.0
20260903051720 65 224 3.0 12.0 0.00 0.00 0.00 69 1014.9
20260903051621 65 233 3.0 12.0 0.00 0.00 0.00 69 1015.0
20260903051520 65 249 3.0 12.0 0.00 0.00 0.00 69 1015.0
20260903051437 66 233 3.0 9.0 0.00 0.00 0.00 69 1014.9
20260903051426 66 225 3.0 9.0 0.00 0.00 0.00 69 1014.9
20260903051320 66 248 3.0 9.0 0.00 0.00 0.00 68 1014.9
20260903051221 66 257 3.0 9.0 0.00 0.00 0.00 68 1015.0
20260903051120 66 250 3.0 9.0 0.00 0.00 0.00 68 1015.0
20260903051020 66 263 3.0 9.0 0.00 0.00 0.00 68 1015.0
20260903050924 66 267 3.0 9.0 0.00 0.00 0.00 68 1015.0
20260903050913 66 212 3.0 9.0 0.00 0.00 0.00 68 1015.0
20260903050820 66 253 3.0 9.0 0.00 0.00 0.00 67 1015.0
20260903050733 66 236 3.0 8.0 0.00 0.00 0.00 67 1015.0
20260903050635 66 211 3.0 10.0 0.00 0.00 0.00 67 1015.0
20260903050621 66 280 3.0 10.0 0.00 0.00 0.00 67 1015.0
20260903050521 66 283 3.0 10.0 0.00 0.00 0.00 67 1015.1
20260903050426 66 250 3.0 10.0 0.00 0.00 0.00 67 1015.0
20260903050419 66 211 3.0 10.0 0.00 0.00 0.00 67 1015.0
20260903050318 66 219 4.0 10.0 0.00 0.00 0.00 67 1015.0
20260903050218 66 225 4.0 10.0 0.00 0.00 0.00 66 1015.0
20260903050118 66 223 4.0 10.0 0.00 0.00 0.00 66 1015.0
20260903050018 66 240 4.0 10.0 0.00 0.00 0.00 66 1015.0
20260903045924 66 248 4.0 10.0 0.00 0.00 0.00 66 1015.0
20260903045913 66 240 4.0 10.0 0.00 0.00 0.00 66 1015.0
20260903045858 67 253 4.0 10.0 0.00 0.00 0.00 65 1015.0
20260903045818 67 246 4.0 10.0 0.00 0.00 0.00 66 1015.1
20260903045718 67 269 4.0 10.0 0.00 0.00 0.00 66 1015.0
20260903045643 67 253 4.0 10.0 0.00 0.00 0.00 65 1015.0
20260903045619 67 260 4.0 10.0 0.00 0.00 0.00 66 1015.0
20260903045518 67 253 4.0 10.0 0.00 0.00 0.00 65 1015.0
20260903045454 67 253 4.0 10.0 0.00 0.00 0.00 65 1015.0
20260903045322 67 267 3.0 10.0 0.00 0.00 0.00 65 1015.0
20260903045219 67 224 3.0 10.0 0.00 0.00 0.00 65 1015.0
20260903045149 67 263 3.0 10.0 0.00 0.00 0.00 65 1015.0
20260903045119 67 228 3.0 10.0 0.00 0.00 0.00 65 1015.0
20260903045013 67 256 3.0 10.0 0.00 0.00 0.00 65 1015.0
20260903044923 67 263 3.0 10.0 0.00 0.00 0.00 65 1015.0
20260903044912 67 236 3.0 10.0 0.00 0.00 0.00 65 1015.0
20260903044812 67 228 3.0 10.0 0.00 0.00 0.00 65 1015.0
20260903044712 67 230 3.0 10.0 0.00 0.00 0.00 65 1015.0
20260903044613 67 266 3.0 10.0 0.00 0.00 0.00 65 1015.0
20260903044512 67 200 3.0 10.0 0.00 0.00 0.00 65 1015.0
20260903044418 67 284 3.0 10.0 0.00 0.00 0.00 64 1014.9
20260903044412 67 282 3.0 10.0 0.00 0.00 0.00 64 1014.9
20260903044312 67 228 2.0 10.0 0.00 0.00 0.00 64 1015.0
20260903044226 67 208 3.0 8.0 0.00 0.00 0.00 64 1014.9
20260903044222 67 266 3.0 7.0 0.00 0.00 0.00 64 1014.9
20260903044012 67 228 3.0 8.0 0.00 0.00 0.00 64 1014.9
20260903043920 67 250 3.0 8.0 0.00 0.00 0.00 64 1014.8
20260903043912 67 257 3.0 8.0 0.00 0.00 0.00 64 1014.8
20260903043813 67 235 3.0 8.0 0.00 0.00 0.00 64 1014.9
20260903043712 67 240 3.0 8.0 0.00 0.00 0.00 64 1014.9
20260903043613 67 248 3.0 10.0 0.00 0.00 0.00 64 1014.9
20260903043513 68 232 3.0 10.0 0.00 0.00 0.00 64 1014.9
20260903043418 68 259 3.0 10.0 0.00 0.00 0.00 64 1014.9
20260903043412 68 260 4.0 10.0 0.00 0.00 0.00 64 1014.9
20260903043313 68 236 4.0 10.0 0.00 0.00 0.00 64 1014.8
20260903043210 68 250 4.0 10.0 0.00 0.00 0.00 64 1014.8
20260903043111 68 253 4.0 10.0 0.00 0.00 0.00 64 1014.9
20260903043010 68 259 4.0 10.0 0.00 0.00 0.00 64 1014.9
20260903042916 68 259 4.0 10.0 0.00 0.00 0.00 64 1014.9
20260903042910 68 260 4.0 10.0 0.00 0.00 0.00 64 1014.9
20260903042810 68 281 5.0 10.0 0.00 0.00 0.00 64 1014.9
20260903042710 68 264 4.0 10.0 0.00 0.00 0.00 64 1014.9
20260903042612 68 273 4.0 10.0 0.00 0.00 0.00 64 1014.9
20260903042510 68 256 4.0 10.0 0.00 0.00 0.00 64 1015.0
20260903042428 68 257 4.0 10.0 0.00 0.00 0.00 63 1015.0
20260903042410 68 253 4.0 10.0 0.00 0.00 0.00 63 1014.9
20260903042310 68 218 4.0 9.0 0.00 0.00 0.00 63 1015.0
20260903042210 68 236 4.0 9.0 0.00 0.00 0.00 63 1015.0
20260903042111 68 236 4.0 9.0 0.00 0.00 0.00 63 1014.9
20260903042010 68 255 4.0 9.0 0.00 0.00 0.00 63 1015.0
20260903041916 68 241 4.0 9.0 0.00 0.00 0.00 63 1015.0
20260903041911 68 240 4.0 9.0 0.00 0.00 0.00 63 1014.9
20260903041810 68 245 4.0 9.0 0.00 0.00 0.00 63 1014.9
20260903041710 68 214 4.0 9.0 0.00 0.00 0.00 63 1014.9
20260903041610 69 256 4.0 9.0 0.00 0.00 0.00 63 1014.9
20260903041511 69 239 4.0 9.0 0.00 0.00 0.00 63 1014.9
20260903041426 69 232 4.0 9.0 0.00 0.00 0.00 63 1014.9
20260903041408 69 215 4.0 9.0 0.00 0.00 0.00 63 1014.9
20260903041308 69 226 4.0 9.0 0.00 0.00 0.00 63 1014.9
20260903041209 69 239 4.0 9.0 0.00 0.00 0.00 63 1014.9
20260903041110 69 246 4.0 9.0 0.00 0.00 0.00 63 1014.9
20260903041008 69 228 4.0 9.0 0.00 0.00 0.00 63 1014.8
20260903040913 69 242 4.0 9.0 0.00 0.00 0.00 63 1014.8
20260903040908 69 236 4.0 9.0 0.00 0.00 0.00 63 1014.8
20260903040808 69 201 4.0 9.0 0.00 0.00 0.00 63 1014.8
20260903040708 69 218 3.0 9.0 0.00 0.00 0.00 63 1014.7
20260903040642 69 245 3.0 9.0 0.00 0.00 0.00 63 1014.7
20260903040611 69 264 3.0 9.0 0.00 0.00 0.00 63 1014.8
20260903040532 69 238 3.0 9.0 0.00 0.00 0.00 63 1014.7
20260903040409 69 253 3.0 9.0 0.00 0.00 0.00 63 1014.7
20260903040309 69 256 3.0 8.0 0.00 0.00 0.00 62 1014.7
20260903040208 69 222 3.0 8.0 0.00 0.00 0.00 62 1014.7
20260903040109 69 217 3.0 8.0 0.00 0.00 0.00 62 1014.7
20260903040003 69 210 3.0 7.0 0.00 0.00 0.00 63 1014.7
20260903035913 69 269 3.0 7.0 0.00 0.00 0.00 63 1014.7
20260903035903 69 226 3.0 7.0 0.00 0.00 0.00 63 1014.7
20260903035800 69 255 3.0 7.0 0.00 0.00 0.00 62 1014.6
20260903035700 69 239 3.0 7.0 0.00 0.00 0.00 62 1014.6
20260903035605 69 250 3.0 8.0 0.00 0.00 0.00 62 1014.6
20260903035500 69 256 3.0 8.0 0.00 0.00 0.00 62 1014.6
20260903035414 69 212 3.0 8.0 0.00 0.00 0.00 62 1014.6
20260903035400 69 193 3.0 8.0 0.00 0.00 0.00 62 1014.6
20260903035300 69 239 3.0 10.0 0.00 0.00 0.00 62 1014.6
20260903035200 69 239 3.0 10.0 0.00 0.00 0.00 62 1014.5
20260903035112 70 257 3.0 10.0 0.00 0.00 0.00 62 1014.5
20260903035108 70 274 3.0 10.0 0.00 0.00 0.00 62 1014.5
20260903034911 70 243 3.0 10.0 0.00 0.00 0.00 62 1014.4
20260903034858 70 232 3.0 10.0 0.00 0.00 0.00 62 1014.4
20260903034758 70 250 3.0 10.0 0.00 0.00 0.00 62 1014.5
20260903034658 70 232 3.0 10.0 0.00 0.00 0.00 62 1014.4
20260903034558 70 233 3.0 10.0 0.00 0.00 0.00 62 1014.5
20260903034456 70 280 3.0 10.0 0.00 0.00 0.00 61 1014.4
20260903034408 70 235 3.0 10.0 0.00 0.00 0.00 61 1014.4
20260903034402 70 238 2.0 8.0 0.00 0.00 0.00 61 1014.4
20260903034356 70 221 3.0 10.0 0.00 0.00 0.00 61 1014.4
20260903034256 70 239 3.0 8.0 0.00 0.00 0.00 61 1014.4
20260903034246 70 232 2.0 8.0 0.00 0.00 0.00 61 1014.3
20260903034054 70 263 2.0 8.0 0.00 0.00 0.00 61 1014.3
20260903034018 70 262 2.0 8.0 0.00 0.00 0.00 61 1014.4
20260903033854 70 246 2.0 8.0 0.00 0.00 0.00 61 1014.4
20260903033752 70 241 2.0 8.0 0.00 0.00 0.00 61 1014.3
20260903033653 70 222 2.0 8.0 0.00 0.00 0.00 61 1014.2
20260903033552 70 230 1.0 8.0 0.00 0.00 0.00 61 1014.3
20260903033452 70 243 1.0 5.0 0.00 0.00 0.00 61 1014.3
20260903033408 70 246 1.0 5.0 0.00 0.00 0.00 61 1014.2
20260903033355 70 253 1.0 5.0 0.00 0.00 0.00 61 1014.2
20260903033346 70 229 1.0 6.0 0.00 0.00 0.00 60 1014.2
20260903033252 70 231 1.0 5.0 0.00 0.00 0.00 60 1014.2
20260903033238 70 225 1.0 5.0 0.00 0.00 0.00 60 1014.2
20260903033049 70 256 1.0 5.0 0.00 0.00 0.00 60 1014.2
20260903033019 70 250 1.0 5.0 0.00 0.00 0.00 60 1014.2
20260903032846 70 235 1.0 6.0 0.00 0.00 0.00 60 1014.2
20260903032747 70 239 1.0 6.0 0.00 0.00 0.00 60 1014.2
20260903032647 70 204 1.0 6.0 0.00 0.00 0.00 60 1014.2
20260903032551 70 204 1.0 6.0 0.00 0.00 0.00 59 1014.1
20260903032444 70 246 1.0 6.0 0.00 0.00 0.00 59 1014.1
20260903032407 70 246 1.0 6.0 0.00 0.00 0.00 59 1014.1
20260903032344 71 245 1.0 6.0 0.00 0.00 0.00 59 1014.1
20260903032244 71 228 2.0 6.0 0.00 0.00 0.00 59 1014.1
20260903032145 71 242 2.0 6.0 0.00 0.00 0.00 59 1014.2
20260903032044 71 241 2.0 6.0 0.00 0.00 0.00 59 1014.1
20260903031945 71 238 2.0 6.0 0.00 0.00 0.00 59 1014.1
20260903031918 71 248 2.0 6.0 0.00 0.00 0.00 59 1014.1
20260903031844 71 267 2.0 6.0 0.00 0.00 0.00 59 1014.1
20260903031744 71 233 2.0 6.0 0.00 0.00 0.00 58 1014.1
20260903031645 71 232 2.0 6.0 0.00 0.00 0.00 58 1014.1
20260903031542 71 269 2.0 6.0 0.00 0.00 0.00 58 1014.0
20260903031442 71 290 2.0 5.0 0.00 0.00 0.00 58 1014.1
20260903031405 71 250 2.0 5.0 0.00 0.00 0.00 58 1014.0
20260903031342 71 233 2.0 5.0 0.00 0.00 0.00 58 1014.0
20260903031240 71 228 1.0 5.0 0.00 0.00 0.00 58 1014.0
20260903031140 71 257 1.0 4.0 0.00 0.00 0.00 57 1014.1
20260903031040 71 230 1.0 6.0 0.00 0.00 0.00 57 1014.0
20260903030940 71 246 1.0 6.0 0.00 0.00 0.00 57 1014.0
20260903030905 71 248 2.0 6.0 0.00 0.00 0.00 57 1014.0
20260903030840 71 246 2.0 6.0 0.00 0.00 0.00 57 1014.0
20260903030740 71 235 2.0 6.0 0.00 0.00 0.00 57 1014.0
20260903030642 71 266 2.0 6.0 0.00 0.00 0.00 56 1014.0
20260903030637 71 233 2.0 6.0 0.00 0.00 0.00 57 1014.0
20260903030535 71 239 2.0 6.0 0.00 0.00 0.00 56 1014.0
20260903030527 71 266 2.0 6.0 0.00 0.00 0.00 56 1014.0
20260903030335 71 286 2.0 6.0 0.00 0.00 0.00 56 1014.0
20260903030234 71 240 2.0 6.0 0.00 0.00 0.00 56 1014.0
20260903030217 72 287 1.0 7.0 0.00 0.00 0.00 55 1014.0
20260903030212 72 216 1.0 4.0 0.00 0.00 0.00 55 1014.0
20260903030209 71 243 2.0 6.0 0.00 0.00 0.00 56 1014.0
20260903030200 71 233 2.0 6.0 0.00 0.00 0.00 56 1014.0
20260903030152 71 235 2.0 7.0 0.00 0.00 0.00 56 1014.0
20260903030142 71 232 2.0 7.0 0.00 0.00 0.00 56 1014.0
20260903030136 71 252 2.0 7.0 0.00 0.00 0.00 56 1014.0
20260903030127 71 235 2.0 7.0 0.00 0.00 0.00 55 1014.0
20260903030119 72 253 2.0 7.0 0.00 0.00 0.00 55 1014.0
20260903030107 72 262 2.0 7.0 0.00 0.00 0.00 55 1014.0
20260903030057 72 238 2.0 7.0 0.00 0.00 0.00 55 1014.1
20260903030046 72 238 1.0 7.0 0.00 0.00 0.00 55 1014.0
20260903030028 72 315 1.0 7.0 0.00 0.00 0.00 55 1014.0
20260903030020 72 245 1.0 7.0 0.00 0.00 0.00 55 1014.1
20260903030011 72 236 1.0 7.0 0.00 0.00 0.00 55 1014.0
20260903025012 72 274 1.0 4.0 0.00 0.00 0.00 55 1014.1
20260903024830 72 219 1.0 4.0 0.00 0.00 0.00 55 1014.0
20260903024729 72 242 1.0 5.0 0.00 0.00 0.00 54 1014.0
20260903024629 72 233 1.0 6.0 0.00 0.00 0.00 54 1014.1
20260903024528 72 210 1.0 6.0 0.00 0.00 0.00 54 1014.1
20260903024428 72 253 1.0 6.0 0.00 0.00 0.00 54 1014.0
20260903024402 72 252 1.0 6.0 0.00 0.00 0.00 54 1014.0
20260903024326 72 300 1.0 6.0 0.00 0.00 0.00 54 1014.0
20260903024226 72 300 2.0 8.0 0.00 0.00 0.00 54 1014.1
20260903024131 72 260 2.0 8.0 0.00 0.00 0.00 54 1014.0
20260903024024 72 244 2.0 8.0 0.00 0.00 0.00 54 1014.0
20260903023925 72 194 2.0 8.0 0.00 0.00 0.00 54 1014.0
20260903023859 72 250 2.0 8.0 0.00 0.00 0.00 54 1014.1
20260903023848 72 47 2.0 8.0 0.00 0.00 0.00 53 1014.1
20260903023825 72 266 2.0 8.0 0.00 0.00 0.00 54 1014.1
20260903023734 72 246 2.0 8.0 0.00 0.00 0.00 53 1014.0
20260903023618 72 274 2.0 8.0 0.00 0.00 0.00 53 1014.0
20260903023518 72 232 2.0 8.0 0.00 0.00 0.00 53 1014.0
20260903023446 72 252 2.0 8.0 0.00 0.00 0.00 53 1014.1
20260903023401 72 47 2.0 8.0 0.00 0.00 0.00 53 1014.1
20260903023318 72 273 2.0 8.0 0.00 0.00 0.00 53 1014.1
20260903023218 72 225 2.0 5.0 0.00 0.00 0.00 53 1014.1
20260903023119 72 243 2.0 5.0 0.00 0.00 0.00 53 1014.0
20260903023018 73 249 2.0 8.0 0.00 0.00 0.00 53 1014.0
20260903022918 73 278 2.0 8.0 0.00 0.00 0.00 53 1014.1
20260903022857 73 246 2.0 8.0 0.00 0.00 0.00 53 1014.1
20260903022818 73 245 2.0 8.0 0.00 0.00 0.00 53 1014.1
20260903022718 73 270 2.0 8.0 0.00 0.00 0.00 53 1014.0
20260903022619 73 221 2.0 8.0 0.00 0.00 0.00 53 1014.1
20260903022512 73 245 2.0 8.0 0.00 0.00 0.00 53 1014.0
20260903022413 73 226 2.0 8.0 0.00 0.00 0.00 53 1014.1
20260903022357 73 226 2.0 8.0 0.00 0.00 0.00 53 1014.1
20260903022312 73 262 2.0 8.0 0.00 0.00 0.00 53 1014.1
20260903022212 73 237 2.0 8.0 0.00 0.00 0.00 53 1014.1
20260903022113 73 226 1.0 8.0 0.00 0.00 0.00 53 1014.1
20260903022012 73 274 1.0 6.0 0.00 0.00 0.00 53 1014.1
20260903022003 73 225 2.0 6.0 0.00 0.00 0.00 53 1014.1
20260903021959 73 262 2.0 5.0 0.00 0.00 0.00 53 1014.1
20260903021949 73 228 2.0 5.0 0.00 0.00 0.00 53 1014.1
20260903021828 73 225 2.0 6.0 0.00 0.00 0.00 53 1014.1
20260903021723 73 226 1.0 6.0 0.00 0.00 0.00 53 1014.1
20260903021612 73 294 1.0 6.0 0.00 0.00 0.00 52 1014.1
20260903021511 73 224 1.0 6.0 0.00 0.00 0.00 52 1014.1
20260903021409 73 260 1.0 6.0 0.00 0.00 0.00 52 1014.1
20260903021355 73 243 1.0 6.0 0.00 0.00 0.00 52 1014.1
20260903021308 73 245 1.0 6.0 0.00 0.00 0.00 53 1014.1
20260903021208 73 256 1.0 6.0 0.00 0.00 0.00 52 1014.1
20260903021109 73 211 1.0 6.0 0.00 0.00 0.00 52 1014.2
20260903021008 73 243 1.0 6.0 0.00 0.00 0.00 52 1014.2
20260903020910 73 243 1.0 6.0 0.00 0.00 0.00 52 1014.2
20260903020902 74 217 4.0 10.0 0.00 0.00 0.00 53 1014.2
20260903020855 73 229 1.0 6.0 0.00 0.00 0.00 52 1014.2
20260903020804 73 218 1.0 4.0 0.00 0.00 0.00 52 1014.1
20260903020752 74 232 3.0 9.0 0.00 0.00 0.00 53 1014.2
20260903020747 73 246 1.0 4.0 0.00 0.00 0.00 52 1014.1
20260903020634 73 231 1.0 4.0 0.00 0.00 0.00 52 1014.2
20260903020518 73 235 1.0 4.0 0.00 0.00 0.00 53 1014.2
20260903020509 74 218 1.0 6.0 0.00 0.00 0.00 53 1014.1
20260903020458 74 198 1.0 6.0 0.00 0.00 0.00 53 1014.1
20260903020349 74 291 2.0 7.0 0.00 0.00 0.00 52 1014.1
20260903020340 74 291 2.0 7.0 0.00 0.00 0.00 52 1014.2
20260903020332 74 291 3.0 7.0 0.00 0.00 0.00 53 1014.2
20260903020323 74 245 3.0 9.0 0.00 0.00 0.00 53 1014.2
20260903020315 74 232 3.0 9.0 0.00 0.00 0.00 53 1014.2
20260903015805 74 232 3.0 9.0 0.00 0.00 0.00 53 1014.2
20260903015733 74 207 4.0 9.0 0.00 0.00 0.00 53 1014.2
20260903015604 74 232 4.0 9.0 0.00 0.00 0.00 53 1014.2
20260903015511 74 263 4.0 9.0 0.00 0.00 0.00 53 1014.2
20260903015502 74 219 4.0 10.0 0.00 0.00 0.00 53 1014.2
20260903015305 74 191 4.0 10.0 0.00 0.00 0.00 53 1014.2
20260903015206 74 241 4.0 10.0 0.00 0.00 0.00 53 1014.2
20260903015111 74 248 4.0 10.0 0.00 0.00 0.00 54 1014.2
20260903015105 74 253 4.0 10.0 0.00 0.00 0.00 53 1014.3
20260903015011 74 259 4.0 10.0 0.00 0.00 0.00 54 1014.2
20260903015002 74 225 4.0 10.0 0.00 0.00 0.00 54 1014.2
20260903014758 74 245 4.0 10.0 0.00 0.00 0.00 54 1014.2
20260903014658 74 267 4.0 10.0 0.00 0.00 0.00 55 1014.3
20260903014618 74 212 3.0 10.0 0.00 0.00 0.00 55 1014.3
20260903014604 74 240 4.0 10.0 0.00 0.00 0.00 55 1014.3
20260903014511 74 222 3.0 10.0 0.00 0.00 0.00 55 1014.2
20260903014502 74 233 3.0 10.0 0.00 0.00 0.00 55 1014.3
20260903014311 74 246 2.0 10.0 0.00 0.00 0.00 55 1014.3
20260903014307 74 246 2.0 10.0 0.00 0.00 0.00 55 1014.3
20260903014054 74 222 2.0 10.0 0.00 0.00 0.00 55 1014.3
20260903013954 74 211 2.0 10.0 0.00 0.00 0.00 55 1014.3
20260903013856 74 232 2.0 6.0 0.00 0.00 0.00 55 1014.3
20260903013819 74 222 2.0 7.0 0.00 0.00 0.00 55 1014.3
20260903013814 74 295 2.0 7.0 0.00 0.00 0.00 55 1014.3
20260903013810 74 239 1.0 7.0 0.00 0.00 0.00 55 1014.3
20260903013452 74 238 3.0 8.0 0.00 0.00 0.00 55 1014.3
20260903013353 74 284 3.0 9.0 0.00 0.00 0.00 55 1014.3
20260903013252 74 221 3.0 9.0 0.00 0.00 0.00 54 1014.3
20260903013153 74 268 3.0 9.0 0.00 0.00 0.00 54 1014.4
20260903013052 74 273 3.0 9.0 0.00 0.00 0.00 55 1014.3
20260903012952 74 250 4.0 9.0 0.00 0.00 0.00 55 1014.3
20260903012854 74 248 4.0 9.0 0.00 0.00 0.00 55 1014.3
20260903012752 74 232 3.0 9.0 0.00 0.00 0.00 55 1014.3
20260903012652 74 225 3.0 9.0 0.00 0.00 0.00 55 1014.3
20260903012552 74 212 3.0 9.0 0.00 0.00 0.00 54 1014.3
20260903012453 75 190 3.0 9.0 0.00 0.00 0.00 54 1014.3
20260903012354 75 259 3.0 9.0 0.00 0.00 0.00 54 1014.3
20260903012251 75 257 2.0 9.0 0.00 0.00 0.00 54 1014.3
20260903012151 75 231 2.0 9.0 0.00 0.00 0.00 55 1014.3
20260903012050 75 281 2.0 9.0 0.00 0.00 0.00 54 1014.3
20260903011950 75 256 2.0 9.0 0.00 0.00 0.00 54 1014.3
20260903011852 75 271 1.0 8.0 0.00 0.00 0.00 55 1014.3
20260903011828 75 235 2.0 9.0 0.00 0.00 0.00 55 1014.3
20260903011750 75 278 2.0 8.0 0.00 0.00 0.00 55 1014.3
20260903011719 75 243 2.0 8.0 0.00 0.00 0.00 55 1014.3
20260903011550 75 228 2.0 8.0 0.00 0.00 0.00 55 1014.3
20260903011504 75 296 2.0 9.0 0.00 0.00 0.00 55 1014.3
20260903011454 75 235 2.0 9.0 0.00 0.00 0.00 55 1014.3
20260903011318 75 280 3.0 9.0 0.00 0.00 0.00 55 1014.3